Time,TemperatureF,DewpointF,PressureIn,WindDirection,WindDirectionDegrees,WindSpeedMPH,WindSpeedGustMPH,Humidity,HourlyPrecipIn,Conditions,Clouds,dailyrainin,SoftwareType,DateUTC
2013-07-17 00:01:00,74.0,71.2,30.10,North,8,2.0,4.0,91,0.00,,,0.04,Wunderground v.1.15,2013-07-17 04:01:00,
2013-07-17 00:02:00,74.0,71.2,30.11,NNE,20,3.0,4.0,91,0.00,,,0.00,Wunderground v.1.15,2013-07-17 04:02:00,
2013-07-17 00:03:00,74.0,71.2,30.11,NE,36,2.0,4.0,91,0.00,,,0.00,Wunderground v.1.15,2013-07-17 04:03:00,
2013-07-17 00:04:00,74.0,71.2,30.11,NE,46,2.0,4.0,91,0.00,,,0.00,Wunderground v.1.15,2013-07-17 04:04:00,
2013-07-17 00:06:00,74.0,71.2,30.11,NE,34,4.0,4.0,91,0.00,,,0.00,Wunderground v.1.15,2013-07-17 04:06:00,
2013-07-17 00:07:00,74.0,71.2,30.11,NNE,13,5.0,5.0,91,0.00,,,0.00,Wunderground v.1.15,2013-07-17 04:07:00,
2013-07-17 00:08:00,74.0,71.2,30.11,NNE,25,2.0,5.0,91,0.00,,,0.00,Wunderground v.1.15,2013-07-17 04:08:00,
2013-07-17 00:10:00,74.0,71.2,30.11,NE,34,3.0,3.0,91,0.00,,,0.00,Wunderground v.1.15,2013-07-17 04:10:00,
2013-07-17 00:11:00,74.0,71.2,30.11,NNE,30,3.0,3.0,91,0.00,,,0.00,Wunderground v.1.15,2013-07-17 04:11:00,
2013-07-17 00:14:00,74.0,71.2,30.11,NE,41,0.0,3.0,91,0.00,,,0.00,Wunderground v.1.15,2013-07-17 04:14:00,
2013-07-17 00:16:00,73.9,71.1,30.11,NE,53,1.0,3.0,91,0.00,,,0.00,Wunderground v.1.15,2013-07-17 04:16:00,
2013-07-17 00:17:00,73.9,71.1,30.11,NE,46,4.0,4.0,91,0.00,,,0.00,Wunderground v.1.15,2013-07-17 04:17:00,
2013-07-17 00:20:00,73.9,71.1,30.11,NE,38,1.0,2.0,91,0.00,,,0.00,Wunderground v.1.15,2013-07-17 04:20:00,
2013-07-17 00:21:00,73.9,71.1,30.11,NE,41,5.0,5.0,91,0.00,,,0.00,Wunderground v.1.15,2013-07-17 04:21:00,
2013-07-17 00:23:00,73.9,71.1,30.11,NNE,20,3.0,5.0,91,0.00,,,0.00,Wunderground v.1.15,2013-07-17 04:23:00,
2013-07-17 00:24:00,73.9,71.1,30.11,North,5,3.0,5.0,91,0.00,,,0.00,Wunderground v.1.15,2013-07-17 04:24:00,
2013-07-17 00:28:00,73.9,71.1,30.11,NE,47,3.0,5.0,91,0.00,,,0.00,Wunderground v.1.15,2013-07-17 04:28:00,
2013-07-17 00:30:00,73.8,71.0,30.11,NE,41,1.0,3.0,91,0.00,,,0.00,Wunderground v.1.15,2013-07-17 04:30:00,
2013-07-17 00:32:00,73.8,71.0,30.11,NE,44,4.0,4.0,91,0.00,,,0.00,Wunderground v.1.15,2013-07-17 04:32:00,
2013-07-17 00:33:00,73.8,71.0,30.11,NE,49,1.0,4.0,91,0.00,,,0.00,Wunderground v.1.15,2013-07-17 04:33:00,
2013-07-17 00:35:00,73.8,71.0,30.11,NNE,30,4.0,4.0,91,0.00,,,0.00,Wunderground v.1.15,2013-07-17 04:35:00,
2013-07-17 00:38:00,73.7,70.9,30.11,NE,34,5.0,5.0,91,0.00,,,0.00,Wunderground v.1.15,2013-07-17 04:38:00,
2013-07-17 00:40:00,73.7,70.9,30.11,NE,55,6.0,6.0,91,0.00,,,0.00,Wunderground v.1.15,2013-07-17 04:40:00,
2013-07-17 00:41:00,73.7,70.9,30.11,NE,38,3.0,6.0,91,0.00,,,0.00,Wunderground v.1.15,2013-07-17 04:41:00,
2013-07-17 00:43:00,73.7,70.9,30.11,NNE,28,3.0,6.0,91,0.00,,,0.00,Wunderground v.1.15,2013-07-17 04:43:00,
2013-07-17 00:44:00,73.6,70.8,30.11,ENE,62,2.0,6.0,91,0.00,,,0.00,Wunderground v.1.15,2013-07-17 04:44:00,
2013-07-17 00:46:00,73.6,70.8,30.11,NE,49,3.0,6.0,91,0.00,,,0.00,Wunderground v.1.15,2013-07-17 04:46:00,
2013-07-17 00:49:00,73.6,70.8,30.11,NE,41,3.0,6.0,91,0.00,,,0.00,Wunderground v.1.15,2013-07-17 04:49:00,
2013-07-17 00:50:00,73.6,70.8,30.11,East,79,2.0,4.0,91,0.00,,,0.00,Wunderground v.1.15,2013-07-17 04:50:00,
2013-07-17 00:52:00,73.6,70.8,30.11,NE,49,4.0,4.0,91,0.00,,,0.00,Wunderground v.1.15,2013-07-17 04:52:00,
2013-07-17 00:54:00,73.6,70.8,30.11,NNE,15,0.0,4.0,91,0.00,,,0.00,Wunderground v.1.15,2013-07-17 04:54:00,
2013-07-17 00:57:00,73.6,70.8,30.11,NE,37,3.0,4.0,91,0.00,,,0.00,Wunderground v.1.15,2013-07-17 04:57:00,
2013-07-17 00:58:00,73.6,70.8,30.11,NNE,31,4.0,4.0,91,0.00,,,0.00,Wunderground v.1.15,2013-07-17 04:58:00,
2013-07-17 00:59:00,73.6,70.8,30.11,NE,40,3.0,4.0,91,0.00,,,0.00,Wunderground v.1.15,2013-07-17 04:59:00,
2013-07-17 01:01:00,73.5,70.7,30.11,NE,51,3.0,3.0,91,0.00,,,0.00,Wunderground v.1.15,2013-07-17 05:01:00,
2013-07-17 01:05:00,73.6,70.8,30.11,NE,38,3.0,4.0,91,0.00,,,0.00,Wunderground v.1.15,2013-07-17 05:05:00,
2013-07-17 01:07:00,73.6,70.8,30.11,NE,36,2.0,4.0,91,0.00,,,0.00,Wunderground v.1.15,2013-07-17 05:07:00,
2013-07-17 01:10:00,73.6,70.8,30.11,NNE,29,4.0,4.0,91,0.00,,,0.00,Wunderground v.1.15,2013-07-17 05:10:00,
2013-07-17 01:13:00,73.6,70.8,30.11,NE,38,4.0,4.0,91,0.00,,,0.00,Wunderground v.1.15,2013-07-17 05:13:00,
2013-07-17 01:14:00,73.6,70.8,30.11,NE,39,3.0,4.0,91,0.00,,,0.00,Wunderground v.1.15,2013-07-17 05:14:00,
2013-07-17 01:15:00,73.6,70.8,30.11,ENE,63,4.0,4.0,91,0.00,,,0.00,Wunderground v.1.15,2013-07-17 05:15:00,
2013-07-17 01:19:00,73.6,70.8,30.11,ENE,68,4.0,5.0,91,0.00,,,0.00,Wunderground v.1.15,2013-07-17 05:19:00,
2013-07-17 01:20:00,73.6,71.1,30.11,NE,34,3.0,4.0,92,0.00,,,0.00,Wunderground v.1.15,2013-07-17 05:20:00,
2013-07-17 01:22:00,73.6,71.1,30.11,NNE,28,2.0,5.0,92,0.00,,,0.00,Wunderground v.1.15,2013-07-17 05:22:00,
2013-07-17 01:25:00,73.7,71.2,30.11,ENE,69,3.0,6.0,92,0.00,,,0.00,Wunderground v.1.15,2013-07-17 05:25:00,
2013-07-17 01:26:00,73.7,70.9,30.11,NE,43,3.0,6.0,91,0.00,,,0.00,Wunderground v.1.15,2013-07-17 05:26:00,
2013-07-17 01:27:00,73.7,70.9,30.11,NE,47,3.0,6.0,91,0.00,,,0.00,Wunderground v.1.15,2013-07-17 05:27:00,
2013-07-17 01:29:00,73.7,70.9,30.11,NE,41,6.0,6.0,91,0.00,,,0.00,Wunderground v.1.15,2013-07-17 05:29:00,
2013-07-17 01:32:00,73.7,70.9,30.11,ENE,73,4.0,4.0,91,0.00,,,0.00,Wunderground v.1.15,2013-07-17 05:32:00,
2013-07-17 01:33:00,73.7,70.9,30.11,ENE,76,2.0,4.0,91,0.00,,,0.00,Wunderground v.1.15,2013-07-17 05:33:00,
2013-07-17 01:35:00,73.7,70.9,30.11,ENE,67,3.0,4.0,91,0.00,,,0.00,Wunderground v.1.15,2013-07-17 05:35:00,
2013-07-17 01:37:00,73.7,70.9,30.11,ENE,72,3.0,4.0,91,0.00,,,0.00,Wunderground v.1.15,2013-07-17 05:37:00,
2013-07-17 01:39:00,73.7,70.9,30.10,ENE,57,2.0,5.0,91,0.00,,,0.00,Wunderground v.1.15,2013-07-17 05:39:00,
2013-07-17 01:41:00,73.7,70.9,30.11,NE,49,5.0,5.0,91,0.00,,,0.00,Wunderground v.1.15,2013-07-17 05:41:00,
2013-07-17 01:42:00,73.7,70.9,30.11,NE,45,3.0,5.0,91,0.00,,,0.00,Wunderground v.1.15,2013-07-17 05:42:00,
2013-07-17 01:43:00,73.7,70.9,30.10,NE,46,1.0,5.0,91,0.00,,,0.00,Wunderground v.1.15,2013-07-17 05:43:00,
2013-07-17 01:45:00,73.7,70.9,30.10,NNE,33,3.0,5.0,91,0.00,,,0.00,Wunderground v.1.15,2013-07-17 05:45:00,
2013-07-17 01:47:00,73.7,70.9,30.10,NNE,20,3.0,5.0,91,0.00,,,0.00,Wunderground v.1.15,2013-07-17 05:47:00,
2013-07-17 01:48:00,73.7,70.9,30.10,NE,51,4.0,5.0,91,0.00,,,0.00,Wunderground v.1.15,2013-07-17 05:48:00,
2013-07-17 01:49:00,73.7,70.9,30.10,NE,38,3.0,5.0,91,0.00,,,0.00,Wunderground v.1.15,2013-07-17 05:49:00,
2013-07-17 01:51:00,73.7,70.9,30.10,ENE,73,6.0,6.0,91,0.00,,,0.00,Wunderground v.1.15,2013-07-17 05:51:00,
2013-07-17 01:52:00,73.7,70.9,30.10,ENE,60,2.0,6.0,91,0.00,,,0.00,Wunderground v.1.15,2013-07-17 05:52:00,
2013-07-17 01:53:00,73.7,70.9,30.10,ENE,72,3.0,6.0,91,0.00,,,0.00,Wunderground v.1.15,2013-07-17 05:53:00,
2013-07-17 01:54:00,73.7,70.9,30.10,ENE,68,5.0,6.0,91,0.00,,,0.00,Wunderground v.1.15,2013-07-17 05:54:00,
2013-07-17 01:58:00,73.7,71.2,30.10,NE,45,3.0,8.0,92,0.00,,,0.00,Wunderground v.1.15,2013-07-17 05:58:00,
2013-07-17 01:59:00,73.7,71.2,30.10,NE,56,4.0,8.0,92,0.00,,,0.00,Wunderground v.1.15,2013-07-17 05:59:00,
2013-07-17 02:00:00,73.7,71.2,30.10,East,90,2.0,4.0,92,0.00,,,0.00,Wunderground v.1.15,2013-07-17 06:00:00,
2013-07-17 02:01:00,73.7,71.2,30.10,ENE,60,7.0,7.0,92,0.00,,,0.00,Wunderground v.1.15,2013-07-17 06:01:00,
2013-07-17 02:03:00,73.7,71.2,30.10,NE,50,3.0,7.0,92,0.00,,,0.00,Wunderground v.1.15,2013-07-17 06:03:00,
2013-07-17 02:04:00,73.7,71.2,30.10,East,80,2.0,7.0,92,0.00,,,0.00,Wunderground v.1.15,2013-07-17 06:04:00,
2013-07-17 02:05:00,73.7,71.2,30.10,ENE,70,2.0,7.0,92,0.00,,,0.00,Wunderground v.1.15,2013-07-17 06:05:00,
2013-07-17 02:06:00,73.7,71.2,30.10,NE,47,1.0,7.0,92,0.00,,,0.00,Wunderground v.1.15,2013-07-17 06:06:00,
2013-07-17 02:08:00,73.7,71.2,30.10,NE,45,6.0,7.0,92,0.00,,,0.00,Wunderground v.1.15,2013-07-17 06:08:00,
2013-07-17 02:09:00,73.7,71.2,30.10,ENE,68,2.0,7.0,92,0.00,,,0.00,Wunderground v.1.15,2013-07-17 06:09:00,
2013-07-17 02:10:00,73.7,71.2,30.10,NNE,29,7.0,7.0,92,0.00,,,0.00,Wunderground v.1.15,2013-07-17 06:10:00,
2013-07-17 02:11:00,73.7,71.2,30.10,ENE,69,3.0,8.0,92,0.00,,,0.00,Wunderground v.1.15,2013-07-17 06:11:00,
2013-07-17 02:14:00,73.7,71.2,30.10,NE,49,3.0,8.0,92,0.00,,,0.00,Wunderground v.1.15,2013-07-17 06:14:00,
2013-07-17 02:15:00,73.7,71.2,30.10,NE,41,5.0,8.0,92,0.00,,,0.00,Wunderground v.1.15,2013-07-17 06:15:00,
2013-07-17 02:16:00,73.7,71.2,30.10,NE,55,4.0,8.0,92,0.00,,,0.00,Wunderground v.1.15,2013-07-17 06:16:00,
2013-07-17 02:19:00,73.7,71.2,30.10,NE,34,3.0,8.0,92,0.00,,,0.00,Wunderground v.1.15,2013-07-17 06:19:00,
2013-07-17 02:20:00,73.7,71.2,30.10,ENE,63,5.0,5.0,92,0.00,,,0.00,Wunderground v.1.15,2013-07-17 06:20:00,
2013-07-17 02:22:00,73.7,71.2,30.10,NNE,16,2.0,6.0,92,0.00,,,0.00,Wunderground v.1.15,2013-07-17 06:22:00,
2013-07-17 02:24:00,73.7,71.2,30.09,ENE,58,2.0,6.0,92,0.00,,,0.00,Wunderground v.1.15,2013-07-17 06:24:00,
2013-07-17 02:25:00,73.7,71.2,30.09,NE,44,7.0,7.0,92,0.00,,,0.00,Wunderground v.1.15,2013-07-17 06:25:00,
2013-07-17 02:27:00,73.7,71.2,30.09,NE,50,3.0,8.0,92,0.00,,,0.00,Wunderground v.1.15,2013-07-17 06:27:00,
2013-07-17 02:29:00,73.7,71.2,30.09,NNE,23,4.0,8.0,92,0.00,,,0.00,Wunderground v.1.15,2013-07-17 06:29:00,
2013-07-17 02:30:00,73.8,71.3,30.09,NE,56,2.0,6.0,92,0.00,,,0.00,Wunderground v.1.15,2013-07-17 06:30:00,
2013-07-17 02:32:00,73.8,71.3,30.09,ENE,68,4.0,6.0,92,0.00,,,0.00,Wunderground v.1.15,2013-07-17 06:32:00,
2013-07-17 02:35:00,73.8,71.3,30.09,NNE,29,2.0,6.0,92,0.00,,,0.00,Wunderground v.1.15,2013-07-17 06:35:00,
2013-07-17 02:36:00,73.7,71.2,30.09,NE,36,4.0,6.0,92,0.00,,,0.00,Wunderground v.1.15,2013-07-17 06:36:00,
2013-07-17 02:37:00,73.7,71.2,30.09,North,7,7.0,8.0,92,0.00,,,0.00,Wunderground v.1.15,2013-07-17 06:37:00,
2013-07-17 02:38:00,73.7,71.2,30.09,NE,36,3.0,8.0,92,0.00,,,0.00,Wunderground v.1.15,2013-07-17 06:38:00,
2013-07-17 02:40:00,73.7,71.2,30.09,ENE,78,2.0,4.0,92,0.00,,,0.00,Wunderground v.1.15,2013-07-17 06:40:00,
2013-07-17 02:41:00,73.7,71.2,30.09,ENE,61,4.0,8.0,92,0.00,,,0.00,Wunderground v.1.15,2013-07-17 06:41:00,
2013-07-17 02:42:00,73.7,71.2,30.08,NE,40,3.0,8.0,92,0.00,,,0.00,Wunderground v.1.15,2013-07-17 06:42:00,
2013-07-17 02:43:00,73.7,71.2,30.08,NNE,13,4.0,8.0,92,0.00,,,0.00,Wunderground v.1.15,2013-07-17 06:43:00,
2013-07-17 02:45:00,73.7,71.2,30.08,ENE,75,4.0,8.0,92,0.00,,,0.00,Wunderground v.1.15,2013-07-17 06:45:00,
2013-07-17 02:46:00,73.7,71.2,30.08,NE,34,1.0,8.0,92,0.00,,,0.00,Wunderground v.1.15,2013-07-17 06:46:00,
2013-07-17 02:47:00,73.7,71.2,30.08,ENE,73,2.0,8.0,92,0.00,,,0.00,Wunderground v.1.15,2013-07-17 06:47:00,
2013-07-17 02:48:00,73.7,71.2,30.08,NE,39,7.0,8.0,92,0.00,,,0.00,Wunderground v.1.15,2013-07-17 06:48:00,
2013-07-17 02:50:00,73.7,71.2,30.08,NE,44,3.0,6.0,92,0.00,,,0.00,Wunderground v.1.15,2013-07-17 06:50:00,
2013-07-17 02:52:00,73.7,71.2,30.08,ENE,62,2.0,6.0,92,0.00,,,0.00,Wunderground v.1.15,2013-07-17 06:52:00,
2013-07-17 02:54:00,73.6,71.1,30.08,NE,36,4.0,6.0,92,0.00,,,0.00,Wunderground v.1.15,2013-07-17 06:54:00,
2013-07-17 02:56:00,73.6,71.1,30.08,NE,37,3.0,6.0,92,0.00,,,0.00,Wunderground v.1.15,2013-07-17 06:56:00,
2013-07-17 02:57:00,73.6,71.1,30.08,ENE,65,4.0,6.0,92,0.00,,,0.00,Wunderground v.1.15,2013-07-17 06:57:00,
2013-07-17 02:59:00,73.6,71.1,30.08,NE,47,3.0,7.0,92,0.00,,,0.00,Wunderground v.1.15,2013-07-17 06:59:00,
2013-07-17 03:01:00,73.6,71.1,30.08,NE,41,5.0,5.0,92,0.00,,,0.00,Wunderground v.1.15,2013-07-17 07:01:00,
2013-07-17 03:02:00,73.6,71.1,30.08,NE,51,4.0,5.0,92,0.00,,,0.00,Wunderground v.1.15,2013-07-17 07:02:00,
2013-07-17 03:04:00,73.6,71.1,30.08,NE,37,4.0,6.0,92,0.00,,,0.00,Wunderground v.1.15,2013-07-17 07:04:00,
2013-07-17 03:06:00,73.6,71.1,30.08,NW,311,1.0,6.0,92,0.00,,,0.00,Wunderground v.1.15,2013-07-17 07:06:00,
2013-07-17 03:07:00,73.5,71.0,30.08,NE,49,4.0,6.0,92,0.00,,,0.00,Wunderground v.1.15,2013-07-17 07:07:00,
2013-07-17 03:08:00,73.5,71.0,30.08,NE,49,4.0,6.0,92,0.00,,,0.00,Wunderground v.1.15,2013-07-17 07:08:00,
2013-07-17 03:10:00,73.5,71.0,30.08,ENE,61,3.0,4.0,92,0.00,,,0.00,Wunderground v.1.15,2013-07-17 07:10:00,
2013-07-17 03:11:00,73.5,71.0,30.08,NE,47,1.0,4.0,92,0.00,,,0.00,Wunderground v.1.15,2013-07-17 07:11:00,
2013-07-17 03:12:00,73.5,71.0,30.08,NE,51,1.0,4.0,92,0.00,,,0.00,Wunderground v.1.15,2013-07-17 07:12:00,
2013-07-17 03:13:00,73.5,71.0,30.08,NNE,13,3.0,4.0,92,0.00,,,0.00,Wunderground v.1.15,2013-07-17 07:13:00,
2013-07-17 03:16:00,73.5,71.0,30.08,ENE,62,1.0,4.0,92,0.00,,,0.00,Wunderground v.1.15,2013-07-17 07:16:00,
2013-07-17 03:17:00,73.4,70.9,30.07,ENE,67,2.0,4.0,92,0.00,,,0.00,Wunderground v.1.15,2013-07-17 07:17:00,
2013-07-17 03:19:00,73.4,70.9,30.07,NE,53,2.0,4.0,92,0.00,,,0.00,Wunderground v.1.15,2013-07-17 07:19:00,
2013-07-17 03:21:00,73.4,70.9,30.07,NNE,28,2.0,5.0,92,0.00,,,0.00,Wunderground v.1.15,2013-07-17 07:21:00,
2013-07-17 03:22:00,73.4,70.9,30.07,NNE,25,2.0,5.0,92,0.00,,,0.00,Wunderground v.1.15,2013-07-17 07:22:00,
2013-07-17 03:24:00,73.3,70.8,30.07,NE,56,1.0,5.0,92,0.00,,,0.00,Wunderground v.1.15,2013-07-17 07:24:00,
2013-07-17 03:26:00,73.3,70.8,30.08,NNE,30,2.0,5.0,92,0.00,,,0.00,Wunderground v.1.15,2013-07-17 07:26:00,
2013-07-17 03:27:00,73.3,70.8,30.08,ENE,58,2.0,5.0,92,0.00,,,0.00,Wunderground v.1.15,2013-07-17 07:27:00,
2013-07-17 03:28:00,73.3,70.8,30.08,ENE,68,2.0,5.0,92,0.00,,,0.00,Wunderground v.1.15,2013-07-17 07:28:00,
2013-07-17 03:29:00,73.3,70.8,30.08,NE,37,3.0,5.0,92,0.00,,,0.00,Wunderground v.1.15,2013-07-17 07:29:00,
2013-07-17 03:31:00,73.3,70.8,30.08,ENE,58,3.0,4.0,92,0.00,,,0.00,Wunderground v.1.15,2013-07-17 07:31:00,
2013-07-17 03:32:00,73.2,70.7,30.07,NE,55,2.0,4.0,92,0.00,,,0.00,Wunderground v.1.15,2013-07-17 07:32:00,
2013-07-17 03:33:00,73.3,70.8,30.08,NNE,31,2.0,4.0,92,0.00,,,0.00,Wunderground v.1.15,2013-07-17 07:33:00,
2013-07-17 03:34:00,73.3,70.8,30.08,NE,56,2.0,4.0,92,0.00,,,0.00,Wunderground v.1.15,2013-07-17 07:34:00,
2013-07-17 03:36:00,73.2,70.7,30.08,NE,51,4.0,5.0,92,0.00,,,0.00,Wunderground v.1.15,2013-07-17 07:36:00,
2013-07-17 03:37:00,73.2,70.7,30.08,NE,41,3.0,5.0,92,0.00,,,0.00,Wunderground v.1.15,2013-07-17 07:37:00,
2013-07-17 03:39:00,73.2,70.7,30.07,NE,54,1.0,5.0,92,0.00,,,0.00,Wunderground v.1.15,2013-07-17 07:39:00,
2013-07-17 03:41:00,73.2,71.1,30.07,ENE,76,1.0,7.0,93,0.00,,,0.00,Wunderground v.1.15,2013-07-17 07:41:00,
2013-07-17 03:42:00,73.2,71.1,30.07,NE,44,5.0,7.0,93,0.00,,,0.00,Wunderground v.1.15,2013-07-17 07:42:00,
2013-07-17 03:44:00,73.1,71.0,30.07,ENE,69,2.0,7.0,93,0.00,,,0.00,Wunderground v.1.15,2013-07-17 07:44:00,
2013-07-17 03:46:00,73.1,71.0,30.07,NE,45,4.0,7.0,93,0.00,,,0.00,Wunderground v.1.15,2013-07-17 07:46:00,
2013-07-17 03:47:00,73.1,71.0,30.07,NE,41,4.0,7.0,93,0.00,,,0.00,Wunderground v.1.15,2013-07-17 07:47:00,
2013-07-17 03:49:00,73.1,71.0,30.07,NE,44,4.0,7.0,93,0.00,,,0.00,Wunderground v.1.15,2013-07-17 07:49:00,
2013-07-17 03:52:00,73.1,71.0,30.07,ENE,65,3.0,3.0,93,0.00,,,0.00,Wunderground v.1.15,2013-07-17 07:52:00,
2013-07-17 03:53:00,73.1,71.0,30.07,NE,47,2.0,6.0,93,0.00,,,0.00,Wunderground v.1.15,2013-07-17 07:53:00,
2013-07-17 03:54:00,73.0,70.9,30.07,NE,56,2.0,6.0,93,0.00,,,0.00,Wunderground v.1.15,2013-07-17 07:54:00,
2013-07-17 03:55:00,73.1,71.0,30.07,ENE,67,1.0,6.0,93,0.00,,,0.00,Wunderground v.1.15,2013-07-17 07:55:00,
2013-07-17 03:57:00,73.0,70.9,30.07,ENE,62,2.0,6.0,93,0.00,,,0.00,Wunderground v.1.15,2013-07-17 07:57:00,
2013-07-17 03:58:00,73.0,70.9,30.07,NE,53,4.0,6.0,93,0.00,,,0.00,Wunderground v.1.15,2013-07-17 07:58:00,
2013-07-17 04:00:00,73.0,70.9,30.07,NE,49,3.0,3.0,93,0.00,,,0.00,Wunderground v.1.15,2013-07-17 08:00:00,
2013-07-17 04:02:00,73.0,70.9,30.07,ENE,69,1.0,5.0,93,0.00,,,0.00,Wunderground v.1.15,2013-07-17 08:02:00,
2013-07-17 04:03:00,73.0,70.9,30.07,North,7,3.0,5.0,93,0.00,,,0.00,Wunderground v.1.15,2013-07-17 08:03:00,
2013-07-17 04:05:00,73.0,70.9,30.07,NE,55,4.0,5.0,93,0.00,,,0.00,Wunderground v.1.15,2013-07-17 08:05:00,
2013-07-17 04:08:00,73.0,70.9,30.07,NE,43,1.0,5.0,93,0.00,,,0.00,Wunderground v.1.15,2013-07-17 08:08:00,
2013-07-17 04:09:00,73.0,70.9,30.07,NNW,333,3.0,5.0,93,0.00,,,0.00,Wunderground v.1.15,2013-07-17 08:09:00,
2013-07-17 04:10:00,73.0,70.9,30.07,ENE,58,2.0,2.0,93,0.00,,,0.00,Wunderground v.1.15,2013-07-17 08:10:00,
2013-07-17 04:11:00,73.0,70.9,30.07,NE,41,2.0,2.0,93,0.00,,,0.00,Wunderground v.1.15,2013-07-17 08:11:00,
2013-07-17 04:13:00,73.0,70.9,30.07,NNE,32,4.0,6.0,93,0.00,,,0.00,Wunderground v.1.15,2013-07-17 08:13:00,
2013-07-17 04:14:00,73.0,70.9,30.07,North,8,4.0,6.0,93,0.00,,,0.00,Wunderground v.1.15,2013-07-17 08:14:00,
2013-07-17 04:15:00,73.0,70.9,30.07,NE,49,5.0,6.0,93,0.00,,,0.00,Wunderground v.1.15,2013-07-17 08:15:00,
2013-07-17 04:16:00,73.0,70.9,30.07,NE,43,3.0,6.0,93,0.00,,,0.00,Wunderground v.1.15,2013-07-17 08:16:00,
2013-07-17 04:18:00,73.0,70.9,30.07,NE,38,3.0,6.0,93,0.00,,,0.00,Wunderground v.1.15,2013-07-17 08:18:00,
2013-07-17 04:19:00,73.0,70.9,30.07,NNE,33,2.0,6.0,93,0.00,,,0.00,Wunderground v.1.15,2013-07-17 08:19:00,
2013-07-17 04:21:00,73.0,70.9,30.07,North,349,0.0,3.0,93,0.00,,,0.00,Wunderground v.1.15,2013-07-17 08:21:00,
2013-07-17 04:23:00,73.0,70.9,30.07,NNE,23,3.0,4.0,93,0.00,,,0.00,Wunderground v.1.15,2013-07-17 08:23:00,
2013-07-17 04:25:00,73.0,70.9,30.07,NNE,30,2.0,4.0,93,0.00,,,0.00,Wunderground v.1.15,2013-07-17 08:25:00,
2013-07-17 04:26:00,73.0,70.9,30.07,NNE,14,4.0,4.0,93,0.00,,,0.00,Wunderground v.1.15,2013-07-17 08:26:00,
2013-07-17 04:28:00,73.0,71.2,30.07,NNW,345,2.0,5.0,94,0.00,,,0.00,Wunderground v.1.15,2013-07-17 08:28:00,
2013-07-17 04:30:00,72.9,71.1,30.07,NNE,13,3.0,3.0,94,0.00,,,0.00,Wunderground v.1.15,2013-07-17 08:30:00,
2013-07-17 04:31:00,73.0,71.2,30.07,NNE,13,7.0,7.0,94,0.00,,,0.00,Wunderground v.1.15,2013-07-17 08:31:00,
2013-07-17 04:32:00,72.9,71.1,30.07,NNE,20,5.0,7.0,94,0.00,,,0.00,Wunderground v.1.15,2013-07-17 08:32:00,
2013-07-17 04:33:00,73.0,71.2,30.07,North,4,2.0,8.0,94,0.00,,,0.00,Wunderground v.1.15,2013-07-17 08:33:00,
2013-07-17 04:35:00,73.0,71.2,30.07,NNE,19,2.0,8.0,94,0.00,,,0.00,Wunderground v.1.15,2013-07-17 08:35:00,
2013-07-17 04:36:00,73.0,71.2,30.07,North,11,3.0,8.0,94,0.00,,,0.00,Wunderground v.1.15,2013-07-17 08:36:00,
2013-07-17 04:37:00,73.0,71.2,30.07,East,82,3.0,8.0,94,0.00,,,0.00,Wunderground v.1.15,2013-07-17 08:37:00,
2013-07-17 04:39:00,73.0,71.2,30.07,NE,36,4.0,8.0,94,0.00,,,0.00,Wunderground v.1.15,2013-07-17 08:39:00,
2013-07-17 04:40:00,73.0,71.2,30.07,NE,34,2.0,4.0,94,0.00,,,0.00,Wunderground v.1.15,2013-07-17 08:40:00,
2013-07-17 04:41:00,73.0,71.2,30.07,NNE,31,2.0,6.0,94,0.00,,,0.00,Wunderground v.1.15,2013-07-17 08:41:00,
2013-07-17 04:42:00,73.0,71.2,30.07,NE,46,2.0,6.0,94,0.00,,,0.00,Wunderground v.1.15,2013-07-17 08:42:00,
2013-07-17 04:44:00,73.0,71.2,30.07,NNE,32,4.0,6.0,94,0.00,,,0.00,Wunderground v.1.15,2013-07-17 08:44:00,
2013-07-17 04:45:00,73.0,71.2,30.07,NNE,25,6.0,8.0,94,0.00,,,0.00,Wunderground v.1.15,2013-07-17 08:45:00,
2013-07-17 04:46:00,73.0,71.2,30.07,NE,50,5.0,8.0,94,0.00,,,0.00,Wunderground v.1.15,2013-07-17 08:46:00,
2013-07-17 04:47:00,73.0,71.2,30.07,NNE,23,5.0,8.0,94,0.00,,,0.00,Wunderground v.1.15,2013-07-17 08:47:00,
2013-07-17 04:49:00,73.0,71.2,30.07,NNE,19,3.0,8.0,94,0.00,,,0.00,Wunderground v.1.15,2013-07-17 08:49:00,
2013-07-17 04:50:00,73.0,71.2,30.07,North,354,2.0,5.0,94,0.00,,,0.00,Wunderground v.1.15,2013-07-17 08:50:00,
2013-07-17 04:51:00,73.1,71.3,30.07,ENE,60,9.0,9.0,94,0.00,,,0.00,Wunderground v.1.15,2013-07-17 08:51:00,
2013-07-17 04:52:00,73.1,71.3,30.07,NNE,28,5.0,9.0,94,0.00,,,0.00,Wunderground v.1.15,2013-07-17 08:52:00,
2013-07-17 04:54:00,73.1,71.3,30.07,NNE,16,3.0,9.0,94,0.00,,,0.00,Wunderground v.1.15,2013-07-17 08:54:00,
2013-07-17 04:55:00,73.1,71.3,30.07,NE,49,4.0,9.0,94,0.00,,,0.00,Wunderground v.1.15,2013-07-17 08:55:00,
2013-07-17 04:56:00,73.1,71.3,30.07,NE,41,5.0,9.0,94,0.00,,,0.00,Wunderground v.1.15,2013-07-17 08:56:00,
2013-07-17 04:57:00,73.1,71.3,30.07,NE,49,8.0,9.0,94,0.00,,,0.00,Wunderground v.1.15,2013-07-17 08:57:00,
2013-07-17 04:59:00,73.1,71.3,30.07,ENE,60,4.0,9.0,94,0.00,,,0.00,Wunderground v.1.15,2013-07-17 08:59:00,
2013-07-17 05:00:00,73.2,71.4,30.07,NNE,18,5.0,8.0,94,0.00,,,0.00,Wunderground v.1.15,2013-07-17 09:00:00,
2013-07-17 05:02:00,73.2,71.4,30.07,NNE,18,4.0,8.0,94,0.00,,,0.00,Wunderground v.1.15,2013-07-17 09:02:00,
2013-07-17 05:03:00,73.2,71.4,30.07,NE,53,4.0,8.0,94,0.00,,,0.00,Wunderground v.1.15,2013-07-17 09:03:00,
2013-07-17 05:04:00,73.3,71.5,30.07,NE,40,4.0,8.0,94,0.00,,,0.00,Wunderground v.1.15,2013-07-17 09:04:00,
2013-07-17 05:05:00,73.2,71.4,30.07,NE,34,3.0,8.0,94,0.00,,,0.00,Wunderground v.1.15,2013-07-17 09:05:00,
2013-07-17 05:07:00,73.3,71.5,30.07,ENE,72,3.0,8.0,94,0.00,,,0.00,Wunderground v.1.15,2013-07-17 09:07:00,
2013-07-17 05:08:00,73.3,71.5,30.08,ENE,75,3.0,8.0,94,0.00,,,0.00,Wunderground v.1.15,2013-07-17 09:08:00,
2013-07-17 05:09:00,73.3,71.5,30.07,NE,41,5.0,8.0,94,0.00,,,0.00,Wunderground v.1.15,2013-07-17 09:09:00,
2013-07-17 05:10:00,73.3,71.5,30.07,NNE,26,6.0,6.0,94,0.00,,,0.00,Wunderground v.1.15,2013-07-17 09:10:00,
2013-07-17 05:12:00,73.3,71.5,30.07,NE,36,1.0,6.0,94,0.00,,,0.00,Wunderground v.1.15,2013-07-17 09:12:00,
2013-07-17 05:13:00,73.3,71.5,30.07,NE,56,2.0,8.0,94,0.00,,,0.00,Wunderground v.1.15,2013-07-17 09:13:00,
2013-07-17 05:14:00,73.4,71.6,30.07,NE,46,6.0,8.0,94,0.00,,,0.00,Wunderground v.1.15,2013-07-17 09:14:00,
2013-07-17 05:16:00,73.4,71.6,30.07,ENE,68,3.0,8.0,94,0.00,,,0.00,Wunderground v.1.15,2013-07-17 09:16:00,
2013-07-17 05:17:00,73.4,71.6,30.07,NE,51,3.0,8.0,94,0.00,,,0.00,Wunderground v.1.15,2013-07-17 09:17:00,
2013-07-17 05:19:00,73.4,71.6,30.08,East,79,3.0,8.0,94,0.00,,,0.00,Wunderground v.1.15,2013-07-17 09:19:00,
2013-07-17 05:20:00,73.4,71.6,30.08,ENE,60,2.0,8.0,94,0.00,,,0.00,Wunderground v.1.15,2013-07-17 09:20:00,
2013-07-17 05:21:00,73.4,71.6,30.08,ENE,61,3.0,4.0,94,0.00,,,0.00,Wunderground v.1.15,2013-07-17 09:21:00,
2013-07-17 05:22:00,73.4,71.6,30.08,NE,43,2.0,4.0,94,0.00,,,0.00,Wunderground v.1.15,2013-07-17 09:22:00,
2013-07-17 05:24:00,73.4,71.6,30.08,ENE,58,2.0,4.0,94,0.00,,,0.00,Wunderground v.1.15,2013-07-17 09:24:00,
2013-07-17 05:25:00,73.4,71.6,30.08,ENE,63,4.0,4.0,94,0.00,,,0.00,Wunderground v.1.15,2013-07-17 09:25:00,
2013-07-17 05:26:00,73.5,71.7,30.08,NE,46,3.0,5.0,94,0.00,,,0.00,Wunderground v.1.15,2013-07-17 09:26:00,
2013-07-17 05:27:00,73.4,71.6,30.08,ENE,60,2.0,5.0,94,0.00,,,0.00,Wunderground v.1.15,2013-07-17 09:27:00,
2013-07-17 05:29:00,73.5,71.7,30.08,NE,39,5.0,7.0,94,0.00,,,0.00,Wunderground v.1.15,2013-07-17 09:29:00,
2013-07-17 05:30:00,73.5,71.7,30.08,NE,51,2.0,6.0,94,0.00,,,0.00,Wunderground v.1.15,2013-07-17 09:30:00,
2013-07-17 05:31:00,73.5,71.7,30.08,NE,49,2.0,6.0,94,0.00,,,0.00,Wunderground v.1.15,2013-07-17 09:31:00,
2013-07-17 05:32:00,73.5,71.7,30.08,NE,46,6.0,7.0,94,0.00,,,0.00,Wunderground v.1.15,2013-07-17 09:32:00,
2013-07-17 05:33:00,73.5,71.7,30.08,NE,47,3.0,7.0,94,0.00,,,0.00,Wunderground v.1.15,2013-07-17 09:33:00,
2013-07-17 05:35:00,73.5,71.7,30.08,NW,315,4.0,7.0,94,0.00,,,0.00,Wunderground v.1.15,2013-07-17 09:35:00,
2013-07-17 05:37:00,73.5,71.7,30.08,NNE,33,2.0,7.0,94,0.00,,,0.00,Wunderground v.1.15,2013-07-17 09:37:00,
2013-07-17 05:38:00,73.5,71.7,30.08,NNE,30,5.0,7.0,94,0.00,,,0.00,Wunderground v.1.15,2013-07-17 09:38:00,
2013-07-17 05:40:00,73.5,71.7,30.08,ENE,60,3.0,4.0,94,0.00,,,0.00,Wunderground v.1.15,2013-07-17 09:40:00,
2013-07-17 05:41:00,73.5,71.7,30.08,NNE,25,3.0,4.0,94,0.00,,,0.00,Wunderground v.1.15,2013-07-17 09:41:00,
2013-07-17 05:42:00,73.5,71.7,30.08,NE,41,3.0,4.0,94,0.00,,,0.00,Wunderground v.1.15,2013-07-17 09:42:00,
2013-07-17 05:43:00,73.6,71.8,30.08,NE,46,2.0,4.0,94,0.00,,,0.00,Wunderground v.1.15,2013-07-17 09:43:00,
2013-07-17 05:45:00,73.6,71.8,30.08,NNE,33,2.0,4.0,94,0.00,,,0.00,Wunderground v.1.15,2013-07-17 09:45:00,
2013-07-17 05:46:00,73.6,71.8,30.08,NE,56,5.0,5.0,94,0.00,,,0.00,Wunderground v.1.15,2013-07-17 09:46:00,
2013-07-17 05:47:00,73.5,71.7,30.08,NE,41,3.0,5.0,94,0.00,,,0.00,Wunderground v.1.15,2013-07-17 09:47:00,
2013-07-17 05:48:00,73.6,71.8,30.08,NE,49,2.0,5.0,94,0.00,,,0.00,Wunderground v.1.15,2013-07-17 09:48:00,
2013-07-17 05:50:00,73.6,71.8,30.08,NE,43,4.0,6.0,94,0.00,,,0.00,Wunderground v.1.15,2013-07-17 09:50:00,
2013-07-17 05:51:00,73.6,71.8,30.08,NE,49,2.0,6.0,94,0.00,,,0.00,Wunderground v.1.15,2013-07-17 09:51:00,
2013-07-17 05:52:00,73.5,71.7,30.08,NNE,22,3.0,6.0,94,0.00,,,0.00,Wunderground v.1.15,2013-07-17 09:52:00,
2013-07-17 05:53:00,73.6,71.8,30.08,NNE,28,4.0,6.0,94,0.00,,,0.00,Wunderground v.1.15,2013-07-17 09:53:00,
2013-07-17 05:55:00,73.6,71.8,30.08,NNE,33,4.0,6.0,94,0.00,,,0.00,Wunderground v.1.15,2013-07-17 09:55:00,
2013-07-17 05:56:00,73.6,71.8,30.08,ENE,60,6.0,6.0,94,0.00,,,0.00,Wunderground v.1.15,2013-07-17 09:56:00,
2013-07-17 05:57:00,73.6,71.8,30.08,NNE,32,2.0,7.0,94,0.00,,,0.00,Wunderground v.1.15,2013-07-17 09:57:00,
2013-07-17 05:59:00,73.6,71.8,30.08,NE,36,4.0,8.0,94,0.00,,,0.00,Wunderground v.1.15,2013-07-17 09:59:00,
2013-07-17 06:00:00,73.6,71.8,30.08,NNE,22,1.0,4.0,94,0.00,,,0.00,Wunderground v.1.15,2013-07-17 10:00:00,
2013-07-17 06:02:00,73.6,71.8,30.08,NNE,20,4.0,6.0,94,0.00,,,0.00,Wunderground v.1.15,2013-07-17 10:02:00,
2013-07-17 06:03:00,73.6,71.8,30.08,NE,38,3.0,7.0,94,0.00,,,0.00,Wunderground v.1.15,2013-07-17 10:03:00,
2013-07-17 06:04:00,73.6,71.8,30.08,NNE,31,3.0,7.0,94,0.00,,,0.00,Wunderground v.1.15,2013-07-17 10:04:00,
2013-07-17 06:06:00,73.6,71.8,30.08,NE,45,4.0,7.0,94,0.00,,,0.00,Wunderground v.1.15,2013-07-17 10:06:00,
2013-07-17 06:07:00,73.6,71.8,30.08,NE,44,2.0,7.0,94,0.00,,,0.00,Wunderground v.1.15,2013-07-17 10:07:00,
2013-07-17 06:08:00,73.6,71.8,30.08,NE,38,3.0,7.0,94,0.00,,,0.00,Wunderground v.1.15,2013-07-17 10:08:00,
2013-07-17 06:09:00,73.6,71.8,30.08,NE,47,3.0,8.0,94,0.00,,,0.00,Wunderground v.1.15,2013-07-17 10:09:00,
2013-07-17 06:10:00,73.6,71.8,30.08,North,5,4.0,4.0,94,0.00,,,0.00,Wunderground v.1.15,2013-07-17 10:10:00,
2013-07-17 06:11:00,73.6,71.8,30.08,ESE,118,2.0,5.0,94,0.00,,,0.00,Wunderground v.1.15,2013-07-17 10:11:00,
2013-07-17 06:13:00,73.6,71.8,30.08,ENE,58,2.0,6.0,94,0.00,,,0.00,Wunderground v.1.15,2013-07-17 10:13:00,
2013-07-17 06:15:00,73.6,71.8,30.08,North,4,5.0,6.0,94,0.00,,,0.00,Wunderground v.1.15,2013-07-17 10:15:00,
2013-07-17 06:16:00,73.6,71.8,30.08,North,4,3.0,6.0,94,0.00,,,0.00,Wunderground v.1.15,2013-07-17 10:16:00,
2013-07-17 06:18:00,73.6,71.8,30.08,NE,34,3.0,8.0,94,0.00,,,0.00,Wunderground v.1.15,2013-07-17 10:18:00,
2013-07-17 06:19:00,73.6,71.8,30.08,NE,36,4.0,8.0,94,0.00,,,0.00,Wunderground v.1.15,2013-07-17 10:19:00,
2013-07-17 06:20:00,73.6,71.8,30.08,ENE,62,2.0,4.0,94,0.00,,,0.00,Wunderground v.1.15,2013-07-17 10:20:00,
2013-07-17 06:21:00,73.6,71.8,30.08,NNE,16,2.0,4.0,94,0.00,,,0.00,Wunderground v.1.15,2013-07-17 10:21:00,
2013-07-17 06:23:00,73.6,71.8,30.08,NNE,30,6.0,7.0,94,0.00,,,0.00,Wunderground v.1.15,2013-07-17 10:23:00,
2013-07-17 06:24:00,73.6,71.8,30.08,NE,37,4.0,7.0,94,0.00,,,0.00,Wunderground v.1.15,2013-07-17 10:24:00,
2013-07-17 06:25:00,73.6,71.8,30.08,NNE,29,4.0,7.0,94,0.00,,,0.00,Wunderground v.1.15,2013-07-17 10:25:00,
2013-07-17 06:26:00,73.6,71.8,30.08,NNE,28,3.0,7.0,94,0.00,,,0.00,Wunderground v.1.15,2013-07-17 10:26:00,
2013-07-17 06:28:00,73.7,71.9,30.08,NE,34,3.0,7.0,94,0.00,,,0.00,Wunderground v.1.15,2013-07-17 10:28:00,
2013-07-17 06:29:00,73.7,71.9,30.08,NNE,16,3.0,7.0,94,0.00,,,0.00,Wunderground v.1.15,2013-07-17 10:29:00,
2013-07-17 06:30:00,73.7,71.9,30.08,NE,36,2.0,4.0,94,0.00,,,0.00,Wunderground v.1.15,2013-07-17 10:30:00,
2013-07-17 06:31:00,73.7,71.9,30.08,NE,46,4.0,4.0,94,0.00,,,0.00,Wunderground v.1.15,2013-07-17 10:31:00,
2013-07-17 06:33:00,73.7,71.9,30.08,ENE,64,3.0,5.0,94,0.00,,,0.00,Wunderground v.1.15,2013-07-17 10:33:00,
2013-07-17 06:35:00,73.6,71.8,30.08,East,80,2.0,5.0,94,0.00,,,0.00,Wunderground v.1.15,2013-07-17 10:35:00,
2013-07-17 06:36:00,73.6,71.8,30.08,East,80,6.0,6.0,94,0.00,,,0.00,Wunderground v.1.15,2013-07-17 10:36:00,
2013-07-17 06:39:00,73.7,71.9,30.08,ENE,63,2.0,6.0,94,0.00,,,0.00,Wunderground v.1.15,2013-07-17 10:39:00,
2013-07-17 06:40:00,73.7,71.9,30.08,NE,37,2.0,3.0,94,0.00,,,0.00,Wunderground v.1.15,2013-07-17 10:40:00,
2013-07-17 06:41:00,73.7,71.9,30.08,NNE,33,3.0,5.0,94,0.00,,,0.00,Wunderground v.1.15,2013-07-17 10:41:00,
2013-07-17 06:42:00,73.7,71.9,30.08,ENE,58,1.0,5.0,94,0.00,,,0.00,Wunderground v.1.15,2013-07-17 10:42:00,
2013-07-17 06:44:00,73.7,71.9,30.08,NNE,25,3.0,6.0,94,0.00,,,0.00,Wunderground v.1.15,2013-07-17 10:44:00,
2013-07-17 06:45:00,73.7,71.9,30.08,NNE,33,2.0,6.0,94,0.00,,,0.00,Wunderground v.1.15,2013-07-17 10:45:00,
2013-07-17 06:46:00,73.7,71.9,30.08,NNE,32,1.0,6.0,94,0.00,,,0.00,Wunderground v.1.15,2013-07-17 10:46:00,
2013-07-17 06:47:00,73.6,71.8,30.08,NE,40,2.0,6.0,94,0.00,,,0.00,Wunderground v.1.15,2013-07-17 10:47:00,
2013-07-17 06:49:00,73.7,71.9,30.08,ENE,75,2.0,6.0,94,0.00,,,0.00,Wunderground v.1.15,2013-07-17 10:49:00,
2013-07-17 06:50:00,73.6,71.8,30.08,NE,40,2.0,3.0,94,0.00,,,0.00,Wunderground v.1.15,2013-07-17 10:50:00,
2013-07-17 06:51:00,73.6,71.8,30.08,NNE,32,5.0,5.0,94,0.00,,,0.00,Wunderground v.1.15,2013-07-17 10:51:00,
2013-07-17 06:52:00,73.7,71.9,30.08,NE,37,4.0,6.0,94,0.00,,,0.00,Wunderground v.1.15,2013-07-17 10:52:00,
2013-07-17 06:54:00,73.6,72.1,30.08,NE,45,2.0,6.0,95,0.00,,,0.00,Wunderground v.1.15,2013-07-17 10:54:00,
2013-07-17 06:55:00,73.6,72.1,30.08,NNE,18,1.0,6.0,95,0.00,,,0.00,Wunderground v.1.15,2013-07-17 10:55:00,
2013-07-17 06:56:00,73.7,72.2,30.08,ENE,60,1.0,6.0,95,0.00,,,0.00,Wunderground v.1.15,2013-07-17 10:56:00,
2013-07-17 06:57:00,73.7,72.2,30.08,ENE,60,1.0,6.0,95,0.00,,,0.00,Wunderground v.1.15,2013-07-17 10:57:00,
2013-07-17 06:58:00,73.6,71.8,30.08,NE,56,2.0,6.0,94,0.00,,,0.00,Wunderground v.1.15,2013-07-17 10:58:00,
2013-07-17 06:59:00,73.6,72.1,30.08,NNE,23,6.0,6.0,95,0.00,,,0.00,Wunderground v.1.15,2013-07-17 10:59:00,
2013-07-17 07:00:00,73.6,72.1,30.08,East,96,3.0,6.0,95,0.00,,,0.00,Wunderground v.1.15,2013-07-17 11:00:00,
2013-07-17 07:02:00,73.6,72.1,30.08,NE,38,1.0,6.0,95,0.00,,,0.00,Wunderground v.1.15,2013-07-17 11:02:00,
2013-07-17 07:03:00,73.6,72.1,30.08,NNE,27,4.0,7.0,95,0.00,,,0.00,Wunderground v.1.15,2013-07-17 11:03:00,
2013-07-17 07:04:00,73.7,72.2,30.08,NE,34,6.0,7.0,95,0.00,,,0.00,Wunderground v.1.15,2013-07-17 11:04:00,
2013-07-17 07:05:00,73.6,72.1,30.08,NNE,20,3.0,7.0,95,0.00,,,0.00,Wunderground v.1.15,2013-07-17 11:05:00,
2013-07-17 07:07:00,73.7,72.2,30.08,NE,46,3.0,7.0,95,0.00,,,0.00,Wunderground v.1.15,2013-07-17 11:07:00,
2013-07-17 07:08:00,73.7,72.2,30.08,NE,39,4.0,7.0,95,0.00,,,0.00,Wunderground v.1.15,2013-07-17 11:08:00,
2013-07-17 07:09:00,73.7,72.2,30.08,NE,45,2.0,7.0,95,0.00,,,0.00,Wunderground v.1.15,2013-07-17 11:09:00,
2013-07-17 07:11:00,73.7,72.2,30.08,NNE,32,2.0,5.0,95,0.00,,,0.00,Wunderground v.1.15,2013-07-17 11:11:00,
2013-07-17 07:12:00,73.7,72.2,30.08,North,11,4.0,5.0,95,0.00,,,0.00,Wunderground v.1.15,2013-07-17 11:12:00,
2013-07-17 07:13:00,73.7,72.2,30.08,NE,46,3.0,5.0,95,0.00,,,0.00,Wunderground v.1.15,2013-07-17 11:13:00,
2013-07-17 07:14:00,73.7,72.2,30.08,NNE,26,4.0,5.0,95,0.00,,,0.00,Wunderground v.1.15,2013-07-17 11:14:00,
2013-07-17 07:16:00,73.7,72.2,30.09,NE,55,1.0,5.0,95,0.00,,,0.00,Wunderground v.1.15,2013-07-17 11:16:00,
2013-07-17 07:17:00,73.7,72.2,30.09,NE,38,2.0,5.0,95,0.00,,,0.00,Wunderground v.1.15,2013-07-17 11:17:00,
2013-07-17 07:18:00,73.7,72.2,30.09,NE,47,5.0,5.0,95,0.00,,,0.00,Wunderground v.1.15,2013-07-17 11:18:00,
2013-07-17 07:19:00,73.7,72.2,30.09,ENE,68,1.0,5.0,95,0.00,,,0.00,Wunderground v.1.15,2013-07-17 11:19:00,
2013-07-17 07:21:00,73.7,72.2,30.09,ENE,67,2.0,5.0,95,0.00,,,0.00,Wunderground v.1.15,2013-07-17 11:21:00,
2013-07-17 07:22:00,73.8,72.3,30.09,NE,35,3.0,6.0,95,0.00,,,0.00,Wunderground v.1.15,2013-07-17 11:22:00,
2013-07-17 07:23:00,73.8,72.3,30.09,North,359,1.0,6.0,95,0.00,,,0.00,Wunderground v.1.15,2013-07-17 11:23:00,
2013-07-17 07:25:00,73.8,72.3,30.09,NNE,19,4.0,6.0,95,0.00,,,0.00,Wunderground v.1.15,2013-07-17 11:25:00,
2013-07-17 07:26:00,73.8,72.3,30.09,North,354,4.0,6.0,95,0.00,,,0.00,Wunderground v.1.15,2013-07-17 11:26:00,
2013-07-17 07:27:00,73.8,72.3,30.09,NNE,23,5.0,7.0,95,0.00,,,0.00,Wunderground v.1.15,2013-07-17 11:27:00,
2013-07-17 07:28:00,73.9,72.4,30.09,NE,40,5.0,7.0,95,0.00,,,0.00,Wunderground v.1.15,2013-07-17 11:28:00,
2013-07-17 07:30:00,73.9,72.4,30.10,NNE,30,3.0,3.0,95,0.00,,,0.00,Wunderground v.1.15,2013-07-17 11:30:00,
2013-07-17 07:31:00,73.9,72.4,30.10,NNE,31,5.0,5.0,95,0.00,,,0.00,Wunderground v.1.15,2013-07-17 11:31:00,
2013-07-17 07:33:00,73.9,72.4,30.10,ENE,68,1.0,5.0,95,0.00,,,0.00,Wunderground v.1.15,2013-07-17 11:33:00,
2013-07-17 07:34:00,73.9,72.4,30.10,NNE,23,6.0,6.0,95,0.00,,,0.00,Wunderground v.1.15,2013-07-17 11:34:00,
2013-07-17 07:35:00,73.9,72.4,30.10,NNE,29,4.0,8.0,95,0.00,,,0.00,Wunderground v.1.15,2013-07-17 11:35:00,
2013-07-17 07:36:00,74.0,72.5,30.10,NNE,26,3.0,8.0,95,0.00,,,0.00,Wunderground v.1.15,2013-07-17 11:36:00,
2013-07-17 07:38:00,74.0,72.5,30.10,NE,56,7.0,8.0,95,0.00,,,0.00,Wunderground v.1.15,2013-07-17 11:38:00,
2013-07-17 07:39:00,74.0,72.5,30.10,NNE,23,11.0,12.0,95,0.00,,,0.00,Wunderground v.1.15,2013-07-17 11:39:00,
2013-07-17 07:40:00,74.1,72.6,30.10,NE,43,5.0,5.0,95,0.00,,,0.00,Wunderground v.1.15,2013-07-17 11:40:00,
2013-07-17 07:41:00,74.1,72.6,30.10,NE,47,3.0,6.0,95,0.00,,,0.00,Wunderground v.1.15,2013-07-17 11:41:00,
2013-07-17 07:43:00,74.2,72.7,30.10,North,349,5.0,9.0,95,0.00,,,0.00,Wunderground v.1.15,2013-07-17 11:43:00,
2013-07-17 07:44:00,74.2,72.7,30.10,NE,50,4.0,9.0,95,0.00,,,0.00,Wunderground v.1.15,2013-07-17 11:44:00,
2013-07-17 07:45:00,74.2,72.7,30.10,North,7,7.0,9.0,95,0.00,,,0.00,Wunderground v.1.15,2013-07-17 11:45:00,
2013-07-17 07:46:00,74.2,72.4,30.11,NNE,27,6.0,9.0,94,0.00,,,0.00,Wunderground v.1.15,2013-07-17 11:46:00,
2013-07-17 07:48:00,74.3,72.5,30.11,NE,39,6.0,9.0,94,0.00,,,0.00,Wunderground v.1.15,2013-07-17 11:48:00,
2013-07-17 07:49:00,74.3,72.5,30.11,ENE,61,5.0,9.0,94,0.00,,,0.00,Wunderground v.1.15,2013-07-17 11:49:00,
2013-07-17 07:50:00,74.4,72.6,30.11,NE,41,6.0,6.0,94,0.00,,,0.00,Wunderground v.1.15,2013-07-17 11:50:00,
2013-07-17 07:52:00,74.4,72.6,30.11,NNE,13,5.0,6.0,94,0.00,,,0.00,Wunderground v.1.15,2013-07-17 11:52:00,
2013-07-17 07:53:00,74.5,72.7,30.11,NE,40,5.0,6.0,94,0.00,,,0.00,Wunderground v.1.15,2013-07-17 11:53:00,
2013-07-17 07:54:00,74.5,72.7,30.11,ENE,59,5.0,6.0,94,0.00,,,0.00,Wunderground v.1.15,2013-07-17 11:54:00,
2013-07-17 07:55:00,74.5,72.7,30.11,ENE,65,4.0,6.0,94,0.00,,,0.00,Wunderground v.1.15,2013-07-17 11:55:00,
2013-07-17 07:57:00,74.6,72.8,30.11,NNE,28,4.0,9.0,94,0.00,,,0.00,Wunderground v.1.15,2013-07-17 11:57:00,
2013-07-17 07:58:00,74.6,72.8,30.11,ENE,58,8.0,9.0,94,0.00,,,0.00,Wunderground v.1.15,2013-07-17 11:58:00,
2013-07-17 07:59:00,74.6,72.8,30.11,NE,41,5.0,9.0,94,0.00,,,0.00,Wunderground v.1.15,2013-07-17 11:59:00,
2013-07-17 08:00:00,74.6,72.8,30.11,NE,55,4.0,4.0,94,0.00,,,0.00,Wunderground v.1.15,2013-07-17 12:00:00,
2013-07-17 08:01:00,74.7,72.9,30.11,NE,36,6.0,6.0,94,0.00,,,0.00,Wunderground v.1.15,2013-07-17 12:01:00,
2013-07-17 08:02:00,74.7,72.9,30.11,NE,52,2.0,6.0,94,0.00,,,0.00,Wunderground v.1.15,2013-07-17 12:02:00,
2013-07-17 08:04:00,74.7,72.9,30.11,NE,41,5.0,6.0,94,0.00,,,0.00,Wunderground v.1.15,2013-07-17 12:04:00,
2013-07-17 08:06:00,74.8,73.0,30.11,NNE,30,9.0,9.0,94,0.00,,,0.00,Wunderground v.1.15,2013-07-17 12:06:00,
2013-07-17 08:07:00,74.8,73.0,30.11,NE,55,3.0,9.0,94,0.00,,,0.00,Wunderground v.1.15,2013-07-17 12:07:00,
2013-07-17 08:09:00,74.9,73.1,30.12,NE,56,9.0,9.0,94,0.00,,,0.00,Wunderground v.1.15,2013-07-17 12:09:00,
2013-07-17 08:10:00,74.9,73.1,30.12,ENE,65,4.0,5.0,94,0.00,,,0.00,Wunderground v.1.15,2013-07-17 12:10:00,
2013-07-17 08:11:00,74.9,73.1,30.12,NNE,23,4.0,6.0,94,0.00,,,0.00,Wunderground v.1.15,2013-07-17 12:11:00,
2013-07-17 08:12:00,75.0,73.2,30.12,NE,34,5.0,6.0,94,0.00,,,0.00,Wunderground v.1.15,2013-07-17 12:12:00,
2013-07-17 08:14:00,75.1,73.3,30.12,NE,51,4.0,9.0,94,0.00,,,0.00,Wunderground v.1.15,2013-07-17 12:14:00,
2013-07-17 08:15:00,75.1,72.9,30.12,NNE,14,3.0,9.0,93,0.00,,,0.00,Wunderground v.1.15,2013-07-17 12:15:00,
2013-07-17 08:16:00,75.2,73.0,30.12,ENE,62,8.0,9.0,93,0.00,,,0.00,Wunderground v.1.15,2013-07-17 12:16:00,
2013-07-17 08:17:00,75.2,73.0,30.12,ENE,61,9.0,9.0,93,0.00,,,0.00,Wunderground v.1.15,2013-07-17 12:17:00,
2013-07-17 08:18:00,75.2,73.0,30.12,ENE,60,5.0,9.0,93,0.00,,,0.00,Wunderground v.1.15,2013-07-17 12:18:00,
2013-07-17 08:19:00,75.3,73.1,30.12,NE,45,5.0,9.0,93,0.00,,,0.00,Wunderground v.1.15,2013-07-17 12:19:00,
2013-07-17 08:20:00,75.3,73.1,30.12,NE,44,6.0,6.0,93,0.00,,,0.00,Wunderground v.1.15,2013-07-17 12:20:00,
2013-07-17 08:21:00,75.3,73.1,30.12,NE,36,5.0,7.0,93,0.00,,,0.00,Wunderground v.1.15,2013-07-17 12:21:00,
2013-07-17 08:22:00,75.4,73.2,30.12,East,79,7.0,9.0,93,0.00,,,0.00,Wunderground v.1.15,2013-07-17 12:22:00,
2013-07-17 08:23:00,75.4,73.2,30.12,NE,50,9.0,9.0,93,0.00,,,0.00,Wunderground v.1.15,2013-07-17 12:23:00,
2013-07-17 08:24:00,75.5,73.3,30.12,ENE,65,2.0,10.0,93,0.00,,,0.00,Wunderground v.1.15,2013-07-17 12:24:00,
2013-07-17 08:25:00,75.5,73.3,30.12,NE,41,9.0,10.0,93,0.00,,,0.00,Wunderground v.1.15,2013-07-17 12:25:00,
2013-07-17 08:26:00,75.6,73.4,30.12,NE,41,3.0,10.0,93,0.00,,,0.00,Wunderground v.1.15,2013-07-17 12:26:00,
2013-07-17 08:27:00,75.6,73.4,30.12,NE,51,3.0,10.0,93,0.00,,,0.00,Wunderground v.1.15,2013-07-17 12:27:00,
2013-07-17 08:28:00,75.6,73.4,30.12,ENE,69,3.0,10.0,93,0.00,,,0.00,Wunderground v.1.15,2013-07-17 12:28:00,
2013-07-17 08:30:00,75.7,73.5,30.12,ENE,60,7.0,12.0,93,0.00,,,0.00,Wunderground v.1.15,2013-07-17 12:30:00,
2013-07-17 08:31:00,75.8,73.6,30.12,NE,49,5.0,12.0,93,0.00,,,0.00,Wunderground v.1.15,2013-07-17 12:31:00,
2013-07-17 08:33:00,75.8,73.6,30.12,ENE,61,4.0,12.0,93,0.00,,,0.00,Wunderground v.1.15,2013-07-17 12:33:00,
2013-07-17 08:35:00,75.9,73.4,30.12,NE,55,6.0,12.0,92,0.00,,,0.00,Wunderground v.1.15,2013-07-17 12:35:00,
2013-07-17 08:36:00,75.9,73.4,30.12,NE,55,7.0,12.0,92,0.00,,,0.00,Wunderground v.1.15,2013-07-17 12:36:00,
2013-07-17 08:38:00,76.1,73.6,30.12,NNE,25,3.0,12.0,92,0.00,,,0.00,Wunderground v.1.15,2013-07-17 12:38:00,
2013-07-17 08:40:00,76.2,73.7,30.12,ENE,67,4.0,5.0,92,0.00,,,0.00,Wunderground v.1.15,2013-07-17 12:40:00,
2013-07-17 08:41:00,76.3,73.8,30.12,East,92,3.0,7.0,92,0.00,,,0.00,Wunderground v.1.15,2013-07-17 12:41:00,
2013-07-17 08:42:00,76.3,73.8,30.12,NE,37,3.0,7.0,92,0.00,,,0.00,Wunderground v.1.15,2013-07-17 12:42:00,
2013-07-17 08:43:00,76.4,73.9,30.12,NE,46,6.0,10.0,92,0.00,,,0.00,Wunderground v.1.15,2013-07-17 12:43:00,
2013-07-17 08:44:00,76.4,73.9,30.12,NE,46,4.0,10.0,92,0.00,,,0.00,Wunderground v.1.15,2013-07-17 12:44:00,
2013-07-17 08:46:00,76.5,74.0,30.12,ENE,70,2.0,10.0,92,0.00,,,0.00,Wunderground v.1.15,2013-07-17 12:46:00,
2013-07-17 08:47:00,76.5,74.0,30.12,ENE,63,2.0,10.0,92,0.00,,,0.00,Wunderground v.1.15,2013-07-17 12:47:00,
2013-07-17 08:49:00,76.6,74.1,30.12,NE,47,4.0,10.0,92,0.00,,,0.00,Wunderground v.1.15,2013-07-17 12:49:00,
2013-07-17 08:51:00,76.7,74.2,30.12,ENE,67,4.0,6.0,92,0.00,,,0.00,Wunderground v.1.15,2013-07-17 12:51:00,
2013-07-17 08:52:00,76.7,74.2,30.12,ENE,68,1.0,6.0,92,0.00,,,0.00,Wunderground v.1.15,2013-07-17 12:52:00,
2013-07-17 08:54:00,76.9,74.1,30.12,NE,41,7.0,9.0,91,0.00,,,0.00,Wunderground v.1.15,2013-07-17 12:54:00,
2013-07-17 08:56:00,77.0,74.2,30.12,NE,50,7.0,9.0,91,0.00,,,0.00,Wunderground v.1.15,2013-07-17 12:56:00,
2013-07-17 08:57:00,77.0,74.2,30.12,NE,43,9.0,10.0,91,0.00,,,0.00,Wunderground v.1.15,2013-07-17 12:57:00,
2013-07-17 08:59:00,77.1,74.3,30.12,NNE,28,3.0,10.0,91,0.00,,,0.00,Wunderground v.1.15,2013-07-17 12:59:00,
2013-07-17 09:00:00,77.1,74.3,30.11,NE,43,5.0,5.0,91,0.00,,,0.00,Wunderground v.1.15,2013-07-17 13:00:00,
2013-07-17 09:01:00,77.2,74.4,30.11,NE,54,3.0,7.0,91,0.00,,,0.00,Wunderground v.1.15,2013-07-17 13:01:00,
2013-07-17 09:02:00,77.2,74.4,30.11,ENE,60,4.0,7.0,91,0.00,,,0.00,Wunderground v.1.15,2013-07-17 13:02:00,
2013-07-17 09:04:00,77.3,74.5,30.11,ENE,65,3.0,7.0,91,0.00,,,0.00,Wunderground v.1.15,2013-07-17 13:04:00,
2013-07-17 09:05:00,77.4,74.6,30.11,NNE,23,4.0,7.0,91,0.00,,,0.00,Wunderground v.1.15,2013-07-17 13:05:00,
2013-07-17 09:06:00,77.5,74.7,30.11,ENE,65,8.0,8.0,91,0.00,,,0.00,Wunderground v.1.15,2013-07-17 13:06:00,
2013-07-17 09:07:00,77.5,74.7,30.11,ENE,64,6.0,9.0,91,0.00,,,0.00,Wunderground v.1.15,2013-07-17 13:07:00,
2013-07-17 09:09:00,77.5,74.3,30.11,NE,56,3.0,9.0,90,0.00,,,0.00,Wunderground v.1.15,2013-07-17 13:09:00,
2013-07-17 09:10:00,77.7,74.9,30.11,NE,55,4.0,4.0,91,0.00,,,0.00,Wunderground v.1.15,2013-07-17 13:10:00,
2013-07-17 09:11:00,77.9,75.1,30.11,NE,45,7.0,7.0,91,0.00,,,0.00,Wunderground v.1.15,2013-07-17 13:11:00,
2013-07-17 09:12:00,77.9,74.7,30.11,ENE,58,6.0,8.0,90,0.00,,,0.00,Wunderground v.1.15,2013-07-17 13:12:00,
2013-07-17 09:14:00,78.0,74.8,30.11,NNE,23,6.0,10.0,90,0.00,,,0.00,Wunderground v.1.15,2013-07-17 13:14:00,
2013-07-17 09:16:00,78.1,74.9,30.11,East,79,4.0,11.0,90,0.00,,,0.00,Wunderground v.1.15,2013-07-17 13:16:00,
2013-07-17 09:17:00,78.2,75.0,30.11,NE,43,8.0,11.0,90,0.00,,,0.00,Wunderground v.1.15,2013-07-17 13:17:00,
2013-07-17 09:19:00,78.3,75.1,30.11,ENE,68,6.0,11.0,90,0.00,,,0.00,Wunderground v.1.15,2013-07-17 13:19:00,
2013-07-17 09:21:00,78.3,74.8,30.11,NE,56,9.0,9.0,89,0.00,,,0.00,Wunderground v.1.15,2013-07-17 13:21:00,
2013-07-17 09:22:00,78.3,74.8,30.11,NE,51,7.0,10.0,89,0.00,,,0.00,Wunderground v.1.15,2013-07-17 13:22:00,
2013-07-17 09:23:00,78.3,74.8,30.11,ENE,65,6.0,10.0,89,0.00,,,0.00,Wunderground v.1.15,2013-07-17 13:23:00,
2013-07-17 09:24:00,78.4,74.9,30.11,ENE,58,6.0,10.0,89,0.00,,,0.00,Wunderground v.1.15,2013-07-17 13:24:00,
2013-07-17 09:26:00,78.4,74.9,30.11,ENE,71,8.0,12.0,89,0.00,,,0.00,Wunderground v.1.15,2013-07-17 13:26:00,
2013-07-17 09:27:00,78.3,74.8,30.11,NNE,30,7.0,12.0,89,0.00,,,0.00,Wunderground v.1.15,2013-07-17 13:27:00,
2013-07-17 09:28:00,78.3,74.8,30.11,ENE,75,11.0,12.0,89,0.00,,,0.00,Wunderground v.1.15,2013-07-17 13:28:00,
2013-07-17 09:29:00,78.3,74.8,30.11,ENE,65,5.0,12.0,89,0.00,,,0.00,Wunderground v.1.15,2013-07-17 13:29:00,
2013-07-17 09:31:00,78.3,74.8,30.11,ENE,63,4.0,8.0,89,0.00,,,0.00,Wunderground v.1.15,2013-07-17 13:31:00,
2013-07-17 09:32:00,78.3,74.8,30.11,ENE,60,6.0,8.0,89,0.00,,,0.00,Wunderground v.1.15,2013-07-17 13:32:00,
2013-07-17 09:33:00,78.3,74.8,30.11,ENE,71,4.0,8.0,89,0.00,,,0.00,Wunderground v.1.15,2013-07-17 13:33:00,
2013-07-17 09:35:00,78.5,75.3,30.11,ENE,72,6.0,8.0,90,0.00,,,0.00,Wunderground v.1.15,2013-07-17 13:35:00,
2013-07-17 09:37:00,78.6,75.1,30.11,NE,56,6.0,10.0,89,0.00,,,0.00,Wunderground v.1.15,2013-07-17 13:37:00,
2013-07-17 09:38:00,78.7,75.2,30.11,ENE,74,9.0,11.0,89,0.00,,,0.00,Wunderground v.1.15,2013-07-17 13:38:00,
2013-07-17 09:39:00,78.7,75.2,30.11,ENE,70,6.0,11.0,89,0.00,,,0.00,Wunderground v.1.15,2013-07-17 13:39:00,
2013-07-17 09:40:00,78.7,75.2,30.10,NE,47,4.0,6.0,89,0.00,,,0.00,Wunderground v.1.15,2013-07-17 13:40:00,
2013-07-17 09:42:00,78.8,75.3,30.10,NE,40,5.0,10.0,89,0.00,,,0.00,Wunderground v.1.15,2013-07-17 13:42:00,
2013-07-17 09:44:00,78.9,75.4,30.11,East,80,4.0,10.0,89,0.00,,,0.00,Wunderground v.1.15,2013-07-17 13:44:00,
2013-07-17 09:45:00,79.0,75.5,30.10,East,92,5.0,11.0,89,0.00,,,0.00,Wunderground v.1.15,2013-07-17 13:45:00,
2013-07-17 09:47:00,79.3,75.8,30.11,NE,56,5.0,11.0,89,0.00,,,0.00,Wunderground v.1.15,2013-07-17 13:47:00,
2013-07-17 09:49:00,79.6,76.1,30.11,NE,43,6.0,11.0,89,0.00,,,0.00,Wunderground v.1.15,2013-07-17 13:49:00,
2013-07-17 09:51:00,79.8,75.9,30.11,ENE,75,8.0,9.0,88,0.00,,,0.00,Wunderground v.1.15,2013-07-17 13:51:00,
2013-07-17 09:52:00,79.8,75.9,30.11,East,79,4.0,9.0,88,0.00,,,0.00,Wunderground v.1.15,2013-07-17 13:52:00,
2013-07-17 09:54:00,79.8,75.9,30.11,ENE,77,5.0,9.0,88,0.00,,,0.00,Wunderground v.1.15,2013-07-17 13:54:00,
2013-07-17 09:56:00,79.9,75.7,30.11,ENE,72,5.0,9.0,87,0.00,,,0.00,Wunderground v.1.15,2013-07-17 13:56:00,
2013-07-17 09:57:00,80.0,76.1,30.11,East,97,3.0,10.0,88,0.00,,,0.00,Wunderground v.1.15,2013-07-17 13:57:00,
2013-07-17 09:59:00,80.2,76.3,30.11,NE,41,3.0,10.0,88,0.00,,,0.00,Wunderground v.1.15,2013-07-17 13:59:00,
2013-07-17 10:01:00,80.3,75.7,30.11,NNE,25,3.0,6.0,86,0.00,,,0.00,Wunderground v.1.15,2013-07-17 14:01:00,
2013-07-17 10:02:00,80.4,75.8,30.11,NNE,18,9.0,10.0,86,0.00,,,0.00,Wunderground v.1.15,2013-07-17 14:02:00,
2013-07-17 10:03:00,80.4,75.8,30.11,NNE,25,7.0,10.0,86,0.00,,,0.00,Wunderground v.1.15,2013-07-17 14:03:00,
2013-07-17 10:04:00,80.6,76.0,30.11,NE,44,4.0,10.0,86,0.00,,,0.00,Wunderground v.1.15,2013-07-17 14:04:00,
2013-07-17 10:05:00,80.7,76.1,30.11,East,80,3.0,10.0,86,0.00,,,0.00,Wunderground v.1.15,2013-07-17 14:05:00,
2013-07-17 10:06:00,80.9,76.3,30.11,NE,39,7.0,10.0,86,0.00,,,0.00,Wunderground v.1.15,2013-07-17 14:06:00,
2013-07-17 10:07:00,81.0,76.4,30.11,NNE,13,4.0,10.0,86,0.00,,,0.00,Wunderground v.1.15,2013-07-17 14:07:00,
2013-07-17 10:08:00,81.0,76.1,30.11,NE,52,4.0,10.0,85,0.00,,,0.00,Wunderground v.1.15,2013-07-17 14:08:00,
2013-07-17 10:09:00,81.1,76.5,30.10,NE,46,7.0,10.0,86,0.00,,,0.00,Wunderground v.1.15,2013-07-17 14:09:00,
2013-07-17 10:10:00,81.1,76.2,30.11,East,80,4.0,6.0,85,0.00,,,0.00,Wunderground v.1.15,2013-07-17 14:10:00,
2013-07-17 10:12:00,81.2,75.9,30.10,NE,53,11.0,14.0,84,0.00,,,0.00,Wunderground v.1.15,2013-07-17 14:12:00,
2013-07-17 10:13:00,81.2,75.5,30.10,ENE,58,7.0,14.0,83,0.00,,,0.00,Wunderground v.1.15,2013-07-17 14:13:00,
2013-07-17 10:14:00,81.2,75.2,30.10,ENE,58,12.0,14.0,82,0.00,,,0.00,Wunderground v.1.15,2013-07-17 14:14:00,
2013-07-17 10:15:00,81.2,75.2,30.10,ENE,71,4.0,14.0,82,0.00,,,0.00,Wunderground v.1.15,2013-07-17 14:15:00,
2013-07-17 10:17:00,81.3,75.6,30.10,ENE,72,4.0,14.0,83,0.00,,,0.00,Wunderground v.1.15,2013-07-17 14:17:00,
2013-07-17 10:18:00,81.4,75.7,30.10,ENE,59,8.0,14.0,83,0.00,,,0.00,Wunderground v.1.15,2013-07-17 14:18:00,
2013-07-17 10:19:00,81.5,75.5,30.10,NNE,29,7.0,14.0,82,0.00,,,0.00,Wunderground v.1.15,2013-07-17 14:19:00,
2013-07-17 10:20:00,81.6,75.6,30.10,NE,51,12.0,15.0,82,0.00,,,0.00,Wunderground v.1.15,2013-07-17 14:20:00,
2013-07-17 10:22:00,81.8,75.4,30.10,East,80,6.0,15.0,81,0.00,,,0.00,Wunderground v.1.15,2013-07-17 14:22:00,
2013-07-17 10:23:00,81.8,75.4,30.10,NE,49,9.0,15.0,81,0.00,,,0.00,Wunderground v.1.15,2013-07-17 14:23:00,
2013-07-17 10:24:00,81.9,75.5,30.10,ENE,72,3.0,15.0,81,0.00,,,0.00,Wunderground v.1.15,2013-07-17 14:24:00,
2013-07-17 10:25:00,82.0,75.6,30.10,East,89,5.0,15.0,81,0.00,,,0.00,Wunderground v.1.15,2013-07-17 14:25:00,
2013-07-17 10:27:00,82.1,75.7,30.10,NE,43,6.0,15.0,81,0.00,,,0.00,Wunderground v.1.15,2013-07-17 14:27:00,
2013-07-17 10:29:00,82.2,75.8,30.10,NNE,30,13.0,15.0,81,0.00,,,0.00,Wunderground v.1.15,2013-07-17 14:29:00,
2013-07-17 10:31:00,82.3,75.9,30.10,ENE,65,6.0,12.0,81,0.00,,,0.00,Wunderground v.1.15,2013-07-17 14:31:00,
2013-07-17 10:32:00,82.5,76.1,30.10,ENE,74,7.0,12.0,81,0.00,,,0.00,Wunderground v.1.15,2013-07-17 14:32:00,
2013-07-17 10:34:00,82.5,76.1,30.10,East,82,5.0,14.0,81,0.00,,,0.00,Wunderground v.1.15,2013-07-17 14:34:00,
2013-07-17 10:36:00,82.5,75.7,30.10,NE,46,8.0,14.0,80,0.00,,,0.00,Wunderground v.1.15,2013-07-17 14:36:00,
2013-07-17 10:37:00,82.5,75.3,30.10,ENE,67,4.0,14.0,79,0.00,,,0.00,Wunderground v.1.15,2013-07-17 14:37:00,
2013-07-17 10:39:00,82.7,75.9,30.09,East,98,4.0,14.0,80,0.00,,,0.00,Wunderground v.1.15,2013-07-17 14:39:00,
2013-07-17 10:40:00,82.8,76.0,30.09,ENE,68,3.0,7.0,80,0.00,,,0.00,Wunderground v.1.15,2013-07-17 14:40:00,
2013-07-17 10:41:00,82.9,75.3,30.09,North,6,9.0,13.0,78,0.00,,,0.00,Wunderground v.1.15,2013-07-17 14:41:00,
2013-07-17 10:42:00,82.9,75.3,30.09,ENE,73,9.0,15.0,78,0.00,,,0.00,Wunderground v.1.15,2013-07-17 14:42:00,
2013-07-17 10:44:00,82.9,74.9,30.09,North,6,11.0,15.0,77,0.00,,,0.00,Wunderground v.1.15,2013-07-17 14:44:00,
2013-07-17 10:45:00,82.9,75.3,30.09,ENE,67,7.0,15.0,78,0.00,,,0.00,Wunderground v.1.15,2013-07-17 14:45:00,
2013-07-17 10:46:00,82.9,75.3,30.09,ENE,61,8.0,15.0,78,0.00,,,0.00,Wunderground v.1.15,2013-07-17 14:46:00,
2013-07-17 10:47:00,82.8,75.6,30.10,ENE,72,7.0,15.0,79,0.00,,,0.00,Wunderground v.1.15,2013-07-17 14:47:00,
2013-07-17 10:50:00,83.0,75.8,30.10,ESE,109,6.0,8.0,79,0.00,,,0.00,Wunderground v.1.15,2013-07-17 14:50:00,
2013-07-17 10:52:00,83.2,75.2,30.09,NE,56,6.0,12.0,77,0.00,,,0.00,Wunderground v.1.15,2013-07-17 14:52:00,
2013-07-17 10:53:00,83.2,75.2,30.09,NE,37,6.0,12.0,77,0.00,,,0.00,Wunderground v.1.15,2013-07-17 14:53:00,
2013-07-17 10:55:00,83.3,75.7,30.10,NE,43,4.0,12.0,78,0.00,,,0.00,Wunderground v.1.15,2013-07-17 14:55:00,
2013-07-17 10:56:00,83.3,75.3,30.10,East,84,7.0,12.0,77,0.00,,,0.00,Wunderground v.1.15,2013-07-17 14:56:00,
2013-07-17 10:57:00,83.2,74.8,30.09,NNE,32,3.0,12.0,76,0.00,,,0.00,Wunderground v.1.15,2013-07-17 14:57:00,
2013-07-17 10:58:00,83.2,74.8,30.09,NE,56,5.0,12.0,76,0.00,,,0.00,Wunderground v.1.15,2013-07-17 14:58:00,
2013-07-17 11:00:00,83.3,74.9,30.10,NE,52,5.0,7.0,76,0.00,,,0.00,Wunderground v.1.15,2013-07-17 15:00:00,
2013-07-17 11:01:00,83.3,74.9,30.09,NNE,13,5.0,8.0,76,0.00,,,0.00,Wunderground v.1.15,2013-07-17 15:01:00,
2013-07-17 11:03:00,83.4,75.0,30.10,NE,37,7.0,13.0,76,0.00,,,0.00,Wunderground v.1.15,2013-07-17 15:03:00,
2013-07-17 11:06:00,83.6,75.6,30.10,NE,56,6.0,13.0,77,0.00,,,0.00,Wunderground v.1.15,2013-07-17 15:06:00,
2013-07-17 11:08:00,83.8,75.8,30.10,ENE,78,5.0,13.0,77,0.00,,,0.00,Wunderground v.1.15,2013-07-17 15:08:00,
2013-07-17 11:11:00,83.9,75.1,30.10,NE,50,6.0,10.0,75,0.00,,,0.00,Wunderground v.1.15,2013-07-17 15:11:00,
2013-07-17 11:13:00,83.8,75.0,30.10,ENE,68,7.0,10.0,75,0.00,,,0.00,Wunderground v.1.15,2013-07-17 15:13:00,
2013-07-17 11:14:00,83.6,74.8,30.10,ENE,75,12.0,14.0,75,0.00,,,0.00,Wunderground v.1.15,2013-07-17 15:14:00,
2013-07-17 11:16:00,83.5,74.7,30.10,NE,51,7.0,14.0,75,0.00,,,0.00,Wunderground v.1.15,2013-07-17 15:16:00,
2013-07-17 11:18:00,83.6,75.2,30.10,ENE,75,9.0,14.0,76,0.00,,,0.00,Wunderground v.1.15,2013-07-17 15:18:00,
2013-07-17 11:19:00,83.7,74.9,30.10,ENE,69,7.0,14.0,75,0.00,,,0.00,Wunderground v.1.15,2013-07-17 15:19:00,
2013-07-17 11:21:00,83.7,75.3,30.10,East,82,3.0,13.0,76,0.00,,,0.00,Wunderground v.1.15,2013-07-17 15:21:00,
2013-07-17 11:22:00,83.8,75.4,30.10,ENE,68,3.0,13.0,76,0.00,,,0.00,Wunderground v.1.15,2013-07-17 15:22:00,
2013-07-17 11:23:00,83.9,75.1,30.10,NE,43,6.0,13.0,75,0.00,,,0.00,Wunderground v.1.15,2013-07-17 15:23:00,
2013-07-17 11:24:00,84.1,75.3,30.10,ENE,78,7.0,13.0,75,0.00,,,0.00,Wunderground v.1.15,2013-07-17 15:24:00,
2013-07-17 11:27:00,84.4,76.0,30.10,NE,48,7.0,13.0,76,0.00,,,0.00,Wunderground v.1.15,2013-07-17 15:27:00,
2013-07-17 11:28:00,84.5,75.3,30.10,ENE,76,6.0,13.0,74,0.00,,,0.00,Wunderground v.1.15,2013-07-17 15:28:00,
2013-07-17 11:29:00,84.6,75.8,30.09,East,101,6.0,13.0,75,0.00,,,0.00,Wunderground v.1.15,2013-07-17 15:29:00,
2013-07-17 11:32:00,84.7,75.1,30.10,East,87,9.0,17.0,73,0.00,,,0.00,Wunderground v.1.15,2013-07-17 15:32:00,
2013-07-17 11:34:00,84.4,75.2,30.10,NE,44,6.0,17.0,74,0.00,,,0.00,Wunderground v.1.15,2013-07-17 15:34:00,
2013-07-17 11:37:00,84.3,74.3,30.10,ENE,59,14.0,18.0,72,0.00,,,0.00,Wunderground v.1.15,2013-07-17 15:37:00,
2013-07-17 11:38:00,84.3,74.7,30.10,NNE,25,4.0,18.0,73,0.00,,,0.00,Wunderground v.1.15,2013-07-17 15:38:00,
2013-07-17 11:39:00,84.3,74.7,30.10,NE,50,10.0,18.0,73,0.00,,,0.00,Wunderground v.1.15,2013-07-17 15:39:00,
2013-07-17 11:42:00,84.2,74.6,30.10,NE,53,5.0,12.0,73,0.00,,,0.00,Wunderground v.1.15,2013-07-17 15:42:00,
2013-07-17 11:44:00,84.1,75.3,30.10,ENE,74,6.0,12.0,75,0.00,,,0.00,Wunderground v.1.15,2013-07-17 15:44:00,
2013-07-17 11:47:00,84.4,75.6,30.10,ENE,70,3.0,12.0,75,0.00,,,0.00,Wunderground v.1.15,2013-07-17 15:47:00,
2013-07-17 11:49:00,84.7,75.5,30.10,ENE,69,8.0,12.0,74,0.00,,,0.00,Wunderground v.1.15,2013-07-17 15:49:00,
2013-07-17 11:52:00,84.6,75.4,30.10,ENE,62,7.0,8.0,74,0.00,,,0.00,Wunderground v.1.15,2013-07-17 15:52:00,
2013-07-17 11:53:00,84.5,75.7,30.10,ENE,78,4.0,10.0,75,0.00,,,0.00,Wunderground v.1.15,2013-07-17 15:53:00,
2013-07-17 11:54:00,84.5,75.7,30.10,ENE,76,2.0,10.0,75,0.00,,,0.00,Wunderground v.1.15,2013-07-17 15:54:00,
2013-07-17 11:57:00,84.7,75.5,30.10,ENE,78,8.0,12.0,74,0.00,,,0.00,Wunderground v.1.15,2013-07-17 15:57:00,
2013-07-17 11:58:00,84.7,75.5,30.10,ENE,58,8.0,12.0,74,0.00,,,0.00,Wunderground v.1.15,2013-07-17 15:58:00,
2013-07-17 11:59:00,84.7,75.5,30.10,East,83,10.0,12.0,74,0.00,,,0.00,Wunderground v.1.15,2013-07-17 15:59:00,
2013-07-17 12:02:00,84.9,74.9,30.10,East,93,6.0,14.0,72,0.00,,,0.00,Wunderground v.1.15,2013-07-17 16:02:00,
2013-07-17 12:03:00,84.9,74.9,30.10,ENE,69,7.0,14.0,72,0.00,,,0.00,Wunderground v.1.15,2013-07-17 16:03:00,
2013-07-17 12:04:00,85.1,75.5,30.10,ENE,72,7.0,14.0,73,0.00,,,0.00,Wunderground v.1.15,2013-07-17 16:04:00,
2013-07-17 12:05:00,85.1,75.5,30.10,ENE,58,9.0,14.0,73,0.00,,,0.00,Wunderground v.1.15,2013-07-17 16:05:00,
2013-07-17 12:08:00,85.5,75.0,30.10,ENE,74,8.0,14.0,71,0.00,,,0.00,Wunderground v.1.15,2013-07-17 16:08:00,
2013-07-17 12:09:00,85.5,74.6,30.10,NE,55,11.0,14.0,70,0.00,,,0.00,Wunderground v.1.15,2013-07-17 16:09:00,
2013-07-17 12:10:00,85.5,74.2,30.10,ENE,71,4.0,14.0,69,0.00,,,0.00,Wunderground v.1.15,2013-07-17 16:10:00,
2013-07-17 12:14:00,85.8,74.4,30.10,ENE,60,3.0,12.0,69,0.00,,,0.00,Wunderground v.1.15,2013-07-17 16:14:00,
2013-07-17 12:15:00,85.9,74.5,30.10,NE,51,6.0,12.0,69,0.00,,,0.00,Wunderground v.1.15,2013-07-17 16:15:00,
2013-07-17 12:16:00,85.9,74.5,30.10,East,86,12.0,12.0,69,0.00,,,0.00,Wunderground v.1.15,2013-07-17 16:16:00,
2013-07-17 12:19:00,86.0,74.2,30.10,ENE,67,14.0,18.0,68,0.00,,,0.00,Wunderground v.1.15,2013-07-17 16:19:00,
2013-07-17 12:20:00,85.9,74.1,30.10,NE,43,9.0,13.0,68,0.00,,,0.00,Wunderground v.1.15,2013-07-17 16:20:00,
2013-07-17 12:21:00,85.9,74.1,30.10,East,87,10.0,13.0,68,0.00,,,0.00,Wunderground v.1.15,2013-07-17 16:21:00,
2013-07-17 12:24:00,85.7,74.4,30.10,ENE,70,12.0,15.0,69,0.00,,,0.00,Wunderground v.1.15,2013-07-17 16:24:00,
2013-07-17 12:26:00,85.7,74.8,30.10,ESE,102,12.0,15.0,70,0.00,,,0.00,Wunderground v.1.15,2013-07-17 16:26:00,
2013-07-17 12:29:00,85.8,74.4,30.10,ENE,58,8.0,15.0,69,0.00,,,0.00,Wunderground v.1.15,2013-07-17 16:29:00,
2013-07-17 12:30:00,85.8,74.9,30.10,East,92,7.0,9.0,70,0.00,,,0.00,Wunderground v.1.15,2013-07-17 16:30:00,
2013-07-17 12:31:00,85.9,75.0,30.10,East,84,15.0,15.0,70,0.00,,,0.00,Wunderground v.1.15,2013-07-17 16:31:00,
2013-07-17 12:34:00,85.9,74.5,30.10,ENE,68,16.0,17.0,69,0.00,,,0.00,Wunderground v.1.15,2013-07-17 16:34:00,
2013-07-17 12:35:00,85.9,74.5,30.10,East,82,12.0,17.0,69,0.00,,,0.00,Wunderground v.1.15,2013-07-17 16:35:00,
2013-07-17 12:36:00,85.7,74.4,30.10,East,79,8.0,17.0,69,0.00,,,0.00,Wunderground v.1.15,2013-07-17 16:36:00,
2013-07-17 12:39:00,85.7,74.8,30.09,ENE,62,9.0,17.0,70,0.00,,,0.00,Wunderground v.1.15,2013-07-17 16:39:00,
2013-07-17 12:40:00,85.7,75.2,30.09,East,83,6.0,9.0,71,0.00,,,0.00,Wunderground v.1.15,2013-07-17 16:40:00,
2013-07-17 12:41:00,85.8,74.9,30.09,NE,40,4.0,10.0,70,0.00,,,0.00,Wunderground v.1.15,2013-07-17 16:41:00,
2013-07-17 12:45:00,86.1,75.6,30.09,ENE,63,6.0,10.0,71,0.00,,,0.00,Wunderground v.1.15,2013-07-17 16:45:00,
2013-07-17 12:46:00,86.1,75.2,30.09,ENE,73,6.0,10.0,70,0.00,,,0.00,Wunderground v.1.15,2013-07-17 16:46:00,
2013-07-17 12:47:00,86.2,75.3,30.09,ENE,57,8.0,10.0,70,0.00,,,0.00,Wunderground v.1.15,2013-07-17 16:47:00,
2013-07-17 12:50:00,86.6,76.1,30.09,ENE,62,7.0,7.0,71,0.00,,,0.00,Wunderground v.1.15,2013-07-17 16:50:00,
2013-07-17 12:51:00,86.8,76.3,30.09,ENE,68,8.0,12.0,71,0.00,,,0.00,Wunderground v.1.15,2013-07-17 16:51:00,
2013-07-17 12:52:00,86.8,75.8,30.09,NNW,346,2.0,12.0,70,0.00,,,0.00,Wunderground v.1.15,2013-07-17 16:52:00,
2013-07-17 12:53:00,87.0,76.0,30.09,ENE,75,7.0,12.0,70,0.00,,,0.00,Wunderground v.1.15,2013-07-17 16:53:00,
2013-07-17 12:55:00,87.0,75.6,30.09,ENE,75,9.0,13.0,69,0.00,,,0.00,Wunderground v.1.15,2013-07-17 16:55:00,
2013-07-17 12:57:00,87.2,74.9,30.09,East,80,8.0,18.0,67,0.00,,,0.00,Wunderground v.1.15,2013-07-17 16:57:00,
2013-07-17 12:58:00,87.2,74.9,30.09,ENE,61,14.0,18.0,67,0.00,,,0.00,Wunderground v.1.15,2013-07-17 16:58:00,
2013-07-17 13:00:00,87.2,74.9,30.09,East,82,7.0,17.0,67,0.00,,,0.00,Wunderground v.1.15,2013-07-17 17:00:00,
2013-07-17 13:01:00,87.2,74.9,30.09,East,79,11.0,17.0,67,0.00,,,0.00,Wunderground v.1.15,2013-07-17 17:01:00,
2013-07-17 13:02:00,87.1,74.8,30.09,ENE,63,13.0,17.0,67,0.00,,,0.00,Wunderground v.1.15,2013-07-17 17:02:00,
2013-07-17 13:03:00,87.0,74.7,30.09,ENE,65,10.0,17.0,67,0.00,,,0.00,Wunderground v.1.15,2013-07-17 17:03:00,
2013-07-17 13:06:00,86.5,74.7,30.09,ESE,105,3.0,17.0,68,0.00,,,0.00,Wunderground v.1.15,2013-07-17 17:06:00,
2013-07-17 13:07:00,86.5,75.1,30.09,ESE,115,7.0,17.0,69,0.00,,,0.00,Wunderground v.1.15,2013-07-17 17:07:00,
2013-07-17 13:08:00,86.5,74.7,30.09,East,85,5.0,17.0,68,0.00,,,0.00,Wunderground v.1.15,2013-07-17 17:08:00,
2013-07-17 13:11:00,86.4,75.0,30.08,ENE,58,6.0,13.0,69,0.00,,,0.00,Wunderground v.1.15,2013-07-17 17:11:00,
2013-07-17 13:13:00,86.3,74.9,30.08,NE,56,6.0,13.0,69,0.00,,,0.00,Wunderground v.1.15,2013-07-17 17:13:00,
2013-07-17 13:16:00,86.1,74.7,30.08,NNE,27,10.0,14.0,69,0.00,,,0.00,Wunderground v.1.15,2013-07-17 17:16:00,
2013-07-17 13:17:00,86.1,74.7,30.08,ENE,69,5.0,14.0,69,0.00,,,0.00,Wunderground v.1.15,2013-07-17 17:17:00,
2013-07-17 13:18:00,86.1,75.2,30.08,NE,36,3.0,14.0,70,0.00,,,0.00,Wunderground v.1.15,2013-07-17 17:18:00,
2013-07-17 13:21:00,86.6,74.8,30.08,ENE,77,11.0,15.0,68,0.00,,,0.00,Wunderground v.1.15,2013-07-17 17:21:00,
2013-07-17 13:22:00,86.6,74.8,30.08,ENE,68,10.0,15.0,68,0.00,,,0.00,Wunderground v.1.15,2013-07-17 17:22:00,
2013-07-17 13:23:00,86.6,74.3,30.08,ENE,71,5.0,16.0,67,0.00,,,0.00,Wunderground v.1.15,2013-07-17 17:23:00,
2013-07-17 13:26:00,86.5,74.7,30.08,ENE,62,7.0,16.0,68,0.00,,,0.00,Wunderground v.1.15,2013-07-17 17:26:00,
2013-07-17 13:27:00,86.5,74.7,30.08,ENE,73,13.0,16.0,68,0.00,,,0.00,Wunderground v.1.15,2013-07-17 17:27:00,
2013-07-17 13:28:00,86.5,74.2,30.08,East,84,9.0,16.0,67,0.00,,,0.00,Wunderground v.1.15,2013-07-17 17:28:00,
2013-07-17 13:29:00,86.5,74.2,30.08,ENE,69,7.0,16.0,67,0.00,,,0.00,Wunderground v.1.15,2013-07-17 17:29:00,
2013-07-17 13:31:00,86.8,74.5,30.08,ENE,77,11.0,12.0,67,0.00,,,0.00,Wunderground v.1.15,2013-07-17 17:31:00,
2013-07-17 13:32:00,86.8,74.5,30.08,NE,54,8.0,14.0,67,0.00,,,0.00,Wunderground v.1.15,2013-07-17 17:32:00,
2013-07-17 13:33:00,86.9,74.6,30.08,ENE,78,10.0,14.0,67,0.00,,,0.00,Wunderground v.1.15,2013-07-17 17:33:00,
2013-07-17 13:34:00,86.9,74.6,30.08,NNE,25,8.0,14.0,67,0.00,,,0.00,Wunderground v.1.15,2013-07-17 17:34:00,
2013-07-17 13:37:00,87.2,74.5,30.08,NE,53,7.0,14.0,66,0.00,,,0.00,Wunderground v.1.15,2013-07-17 17:37:00,
2013-07-17 13:39:00,87.3,74.5,30.08,East,95,7.0,15.0,66,0.00,,,0.00,Wunderground v.1.15,2013-07-17 17:39:00,
2013-07-17 13:42:00,87.4,74.6,30.07,ENE,61,5.0,12.0,66,0.00,,,0.00,Wunderground v.1.15,2013-07-17 17:42:00,
2013-07-17 13:44:00,87.6,74.4,30.07,NE,51,5.0,14.0,65,0.00,,,0.00,Wunderground v.1.15,2013-07-17 17:44:00,
2013-07-17 13:47:00,87.8,75.0,30.07,ENE,61,9.0,14.0,66,0.00,,,0.00,Wunderground v.1.15,2013-07-17 17:47:00,
2013-07-17 13:49:00,87.8,74.6,30.07,ESE,119,6.0,14.0,65,0.00,,,0.00,Wunderground v.1.15,2013-07-17 17:49:00,
2013-07-17 13:52:00,87.4,74.6,30.07,East,80,9.0,12.0,66,0.00,,,0.00,Wunderground v.1.15,2013-07-17 17:52:00,
2013-07-17 13:53:00,87.4,74.6,30.07,East,89,6.0,12.0,66,0.00,,,0.00,Wunderground v.1.15,2013-07-17 17:53:00,
2013-07-17 13:54:00,87.2,74.5,30.07,NNE,27,3.0,12.0,66,0.00,,,0.00,Wunderground v.1.15,2013-07-17 17:54:00,
2013-07-17 13:55:00,87.3,75.0,30.07,ENE,72,5.0,12.0,67,0.00,,,0.00,Wunderground v.1.15,2013-07-17 17:55:00,
2013-07-17 13:57:00,87.5,75.2,30.07,ENE,62,10.0,12.0,67,0.00,,,0.00,Wunderground v.1.15,2013-07-17 17:57:00,
2013-07-17 13:58:00,87.6,75.3,30.07,NE,46,2.0,12.0,67,0.00,,,0.00,Wunderground v.1.15,2013-07-17 17:58:00,
2013-07-17 13:59:00,87.8,75.0,30.07,ENE,70,10.0,13.0,66,0.00,,,0.00,Wunderground v.1.15,2013-07-17 17:59:00,
2013-07-17 14:01:00,87.6,74.8,30.07,ENE,58,6.0,11.0,66,0.00,,,0.00,Wunderground v.1.15,2013-07-17 18:01:00,
2013-07-17 14:03:00,87.4,74.6,30.07,ENE,61,7.0,11.0,66,0.00,,,0.00,Wunderground v.1.15,2013-07-17 18:03:00,
2013-07-17 14:04:00,87.4,75.1,30.07,NE,55,12.0,15.0,67,0.00,,,0.00,Wunderground v.1.15,2013-07-17 18:04:00,
2013-07-17 14:06:00,87.4,75.1,30.06,NE,40,2.0,15.0,67,0.00,,,0.00,Wunderground v.1.15,2013-07-17 18:06:00,
2013-07-17 14:08:00,87.6,75.3,30.07,NNE,15,12.0,15.0,67,0.00,,,0.00,Wunderground v.1.15,2013-07-17 18:08:00,
2013-07-17 14:09:00,87.9,75.1,30.06,NE,44,10.0,15.0,66,0.00,,,0.00,Wunderground v.1.15,2013-07-17 18:09:00,
2013-07-17 14:11:00,88.2,75.9,30.07,ESE,121,9.0,14.0,67,0.00,,,0.00,Wunderground v.1.15,2013-07-17 18:11:00,
2013-07-17 14:13:00,88.3,75.0,30.07,East,100,10.0,14.0,65,0.00,,,0.00,Wunderground v.1.15,2013-07-17 18:13:00,
2013-07-17 14:14:00,88.3,75.0,30.07,East,79,9.0,15.0,65,0.00,,,0.00,Wunderground v.1.15,2013-07-17 18:14:00,
2013-07-17 14:15:00,88.2,75.4,30.07,NE,51,8.0,15.0,66,0.00,,,0.00,Wunderground v.1.15,2013-07-17 18:15:00,
2013-07-17 14:16:00,88.1,74.8,30.06,ENE,58,7.0,15.0,65,0.00,,,0.00,Wunderground v.1.15,2013-07-17 18:16:00,
2013-07-17 14:18:00,88.1,75.3,30.06,NE,56,10.0,15.0,66,0.00,,,0.00,Wunderground v.1.15,2013-07-17 18:18:00,
2013-07-17 14:19:00,88.1,75.3,30.06,East,84,10.0,15.0,66,0.00,,,0.00,Wunderground v.1.15,2013-07-17 18:19:00,
2013-07-17 14:20:00,88.0,75.2,30.06,NNE,13,11.0,19.0,66,0.00,,,0.00,Wunderground v.1.15,2013-07-17 18:20:00,
2013-07-17 14:21:00,87.9,75.1,30.06,ENE,65,9.0,19.0,66,0.00,,,0.00,Wunderground v.1.15,2013-07-17 18:21:00,
2013-07-17 14:24:00,87.9,75.6,30.06,East,80,3.0,19.0,67,0.00,,,0.00,Wunderground v.1.15,2013-07-17 18:24:00,
2013-07-17 14:25:00,87.9,75.6,30.06,East,94,6.0,19.0,67,0.00,,,0.00,Wunderground v.1.15,2013-07-17 18:25:00,
2013-07-17 14:26:00,88.0,76.1,30.06,ENE,70,10.0,19.0,68,0.00,,,0.00,Wunderground v.1.15,2013-07-17 18:26:00,
2013-07-17 14:29:00,88.3,75.9,30.06,ENE,72,5.0,19.0,67,0.00,,,0.00,Wunderground v.1.15,2013-07-17 18:29:00,
2013-07-17 14:30:00,88.4,75.1,30.06,NNE,29,8.0,8.0,65,0.00,,,0.00,Wunderground v.1.15,2013-07-17 18:30:00,
2013-07-17 14:31:00,88.4,75.1,30.06,East,79,8.0,18.0,65,0.00,,,0.00,Wunderground v.1.15,2013-07-17 18:31:00,
2013-07-17 14:35:00,88.1,75.3,30.06,ENE,67,4.0,18.0,66,0.00,,,0.00,Wunderground v.1.15,2013-07-17 18:35:00,
2013-07-17 14:36:00,88.2,75.4,30.06,East,80,9.0,18.0,66,0.00,,,0.00,Wunderground v.1.15,2013-07-17 18:36:00,
2013-07-17 14:37:00,88.1,74.8,30.06,NE,49,7.0,18.0,65,0.00,,,0.00,Wunderground v.1.15,2013-07-17 18:37:00,
2013-07-17 14:40:00,88.2,75.9,30.05,ENE,58,6.0,10.0,67,0.00,,,0.00,Wunderground v.1.15,2013-07-17 18:40:00,
2013-07-17 14:41:00,88.2,75.4,30.06,NNE,16,7.0,10.0,66,0.00,,,0.00,Wunderground v.1.15,2013-07-17 18:41:00,
2013-07-17 14:42:00,88.3,75.0,30.06,East,100,8.0,10.0,65,0.00,,,0.00,Wunderground v.1.15,2013-07-17 18:42:00,
2013-07-17 14:45:00,88.3,73.6,30.05,NNE,26,7.0,16.0,62,0.00,,,0.00,Wunderground v.1.15,2013-07-17 18:45:00,
2013-07-17 14:46:00,88.4,73.7,30.05,East,96,6.0,16.0,62,0.00,,,0.00,Wunderground v.1.15,2013-07-17 18:46:00,
2013-07-17 14:47:00,88.4,73.2,30.05,East,100,4.0,16.0,61,0.00,,,0.00,Wunderground v.1.15,2013-07-17 18:47:00,
2013-07-17 14:50:00,88.8,74.1,30.05,NE,51,7.0,9.0,62,0.00,,,0.00,Wunderground v.1.15,2013-07-17 18:50:00,
2013-07-17 14:51:00,88.8,74.6,30.05,NE,46,5.0,11.0,63,0.00,,,0.00,Wunderground v.1.15,2013-07-17 18:51:00,
2013-07-17 14:52:00,88.7,74.0,30.05,ENE,65,6.0,11.0,62,0.00,,,0.00,Wunderground v.1.15,2013-07-17 18:52:00,
2013-07-17 14:53:00,88.7,74.5,30.05,ENE,62,6.0,11.0,63,0.00,,,0.00,Wunderground v.1.15,2013-07-17 18:53:00,
2013-07-17 14:56:00,88.8,74.1,30.05,ENE,60,5.0,13.0,62,0.00,,,0.00,Wunderground v.1.15,2013-07-17 18:56:00,
2013-07-17 14:57:00,88.9,74.2,30.05,NE,56,4.0,13.0,62,0.00,,,0.00,Wunderground v.1.15,2013-07-17 18:57:00,
2013-07-17 14:59:00,89.1,74.4,30.04,ENE,65,6.0,13.0,62,0.00,,,0.00,Wunderground v.1.15,2013-07-17 18:59:00,
2013-07-17 15:01:00,89.3,74.6,30.04,NNE,32,8.0,9.0,62,0.00,,,0.00,Wunderground v.1.15,2013-07-17 19:01:00,
2013-07-17 15:02:00,89.3,74.6,30.04,ESE,121,6.0,9.0,62,0.00,,,0.00,Wunderground v.1.15,2013-07-17 19:02:00,
2013-07-17 15:03:00,89.5,74.8,30.04,East,89,4.0,9.0,62,0.00,,,0.00,Wunderground v.1.15,2013-07-17 19:03:00,
2013-07-17 15:04:00,89.6,75.3,30.04,East,85,5.0,9.0,63,0.00,,,0.00,Wunderground v.1.15,2013-07-17 19:04:00,
2013-07-17 15:06:00,89.8,75.5,30.04,ENE,75,10.0,11.0,63,0.00,,,0.00,Wunderground v.1.15,2013-07-17 19:06:00,
2013-07-17 15:07:00,89.7,74.5,30.04,ENE,72,5.0,11.0,61,0.00,,,0.00,Wunderground v.1.15,2013-07-17 19:07:00,
2013-07-17 15:08:00,89.7,74.9,30.04,East,89,9.0,11.0,62,0.00,,,0.00,Wunderground v.1.15,2013-07-17 19:08:00,
2013-07-17 15:09:00,89.6,74.4,30.04,ESE,121,7.0,11.0,61,0.00,,,0.00,Wunderground v.1.15,2013-07-17 19:09:00,
2013-07-17 15:11:00,89.4,74.7,30.04,ENE,69,2.0,12.0,62,0.00,,,0.00,Wunderground v.1.15,2013-07-17 19:11:00,
2013-07-17 15:12:00,89.4,74.7,30.04,NE,45,10.0,13.0,62,0.00,,,0.00,Wunderground v.1.15,2013-07-17 19:12:00,
2013-07-17 15:13:00,89.4,74.7,30.04,ENE,78,5.0,13.0,62,0.00,,,0.00,Wunderground v.1.15,2013-07-17 19:13:00,
2013-07-17 15:14:00,89.3,74.1,30.04,ENE,72,5.0,13.0,61,0.00,,,0.00,Wunderground v.1.15,2013-07-17 19:14:00,
2013-07-17 15:16:00,89.1,74.4,30.04,ENE,61,4.0,13.0,62,0.00,,,0.00,Wunderground v.1.15,2013-07-17 19:16:00,
2013-07-17 15:18:00,88.9,74.7,30.04,ENE,58,5.0,13.0,63,0.00,,,0.00,Wunderground v.1.15,2013-07-17 19:18:00,
2013-07-17 15:20:00,88.9,74.2,30.04,ENE,67,4.0,13.0,62,0.00,,,0.00,Wunderground v.1.15,2013-07-17 19:20:00,
2013-07-17 15:21:00,88.8,74.1,30.04,ENE,60,8.0,10.0,62,0.00,,,0.00,Wunderground v.1.15,2013-07-17 19:21:00,
2013-07-17 15:23:00,88.6,74.4,30.04,ENE,77,5.0,11.0,63,0.00,,,0.00,Wunderground v.1.15,2013-07-17 19:23:00,
2013-07-17 15:24:00,88.5,74.3,30.04,ENE,69,6.0,11.0,63,0.00,,,0.00,Wunderground v.1.15,2013-07-17 19:24:00,
2013-07-17 15:25:00,88.2,74.0,30.04,East,82,6.0,13.0,63,0.00,,,0.00,Wunderground v.1.15,2013-07-17 19:25:00,
2013-07-17 15:26:00,88.1,74.4,30.04,ESE,105,3.0,13.0,64,0.00,,,0.00,Wunderground v.1.15,2013-07-17 19:26:00,
2013-07-17 15:28:00,87.9,74.2,30.04,ENE,67,4.0,13.0,64,0.00,,,0.00,Wunderground v.1.15,2013-07-17 19:28:00,
2013-07-17 15:29:00,87.7,74.5,30.04,ESE,117,6.0,13.0,65,0.00,,,0.00,Wunderground v.1.15,2013-07-17 19:29:00,
2013-07-17 15:31:00,87.6,74.4,30.04,North,11,3.0,10.0,65,0.00,,,0.00,Wunderground v.1.15,2013-07-17 19:31:00,
2013-07-17 15:33:00,87.4,73.7,30.04,NE,44,6.0,13.0,64,0.00,,,0.00,Wunderground v.1.15,2013-07-17 19:33:00,
2013-07-17 15:35:00,87.5,74.3,30.04,NE,51,5.0,13.0,65,0.00,,,0.00,Wunderground v.1.15,2013-07-17 19:35:00,
2013-07-17 15:36:00,87.5,74.3,30.04,ENE,69,5.0,13.0,65,0.00,,,0.00,Wunderground v.1.15,2013-07-17 19:36:00,
2013-07-17 15:38:00,87.5,74.7,30.05,East,89,3.0,13.0,66,0.00,,,0.00,Wunderground v.1.15,2013-07-17 19:38:00,
2013-07-17 15:40:00,87.2,74.9,30.07,East,95,20.0,20.0,67,0.00,,,0.00,Wunderground v.1.15,2013-07-17 19:40:00,
2013-07-17 15:41:00,86.0,75.1,30.07,NE,50,11.0,27.0,70,0.00,,,0.01,Wunderground v.1.15,2013-07-17 19:41:00,
2013-07-17 15:44:00,80.8,73.3,30.07,ENE,75,8.0,27.0,78,3.47,,,0.07,Wunderground v.1.15,2013-07-17 19:44:00,
2013-07-17 15:45:00,79.6,72.9,30.07,ESE,113,17.0,27.0,80,2.89,,,0.12,Wunderground v.1.15,2013-07-17 19:45:00,
2013-07-17 15:46:00,78.1,72.2,30.07,East,95,16.0,27.0,82,2.65,,,0.17,Wunderground v.1.15,2013-07-17 19:46:00,
2013-07-17 15:49:00,75.7,71.2,30.07,ENE,69,13.0,27.0,86,2.52,,,0.29,Wunderground v.1.15,2013-07-17 19:49:00,
2013-07-17 15:50:00,74.9,71.1,30.08,East,86,10.0,16.0,88,1.39,,,0.33,Wunderground v.1.15,2013-07-17 19:50:00,
2013-07-17 15:51:00,74.7,70.9,30.08,East,86,15.0,16.0,88,1.57,,,0.33,Wunderground v.1.15,2013-07-17 19:51:00,
2013-07-17 15:54:00,73.3,70.5,30.09,East,80,9.0,17.0,91,0.24,,,0.36,Wunderground v.1.15,2013-07-17 19:54:00,
2013-07-17 15:56:00,73.0,70.5,30.10,ENE,69,5.0,17.0,92,0.24,,,0.36,Wunderground v.1.15,2013-07-17 19:56:00,
2013-07-17 15:57:00,72.8,70.3,30.10,East,95,7.0,17.0,92,0.31,,,0.37,Wunderground v.1.15,2013-07-17 19:57:00,
2013-07-17 15:59:00,72.5,70.4,30.09,ESE,105,6.0,17.0,93,0.53,,,0.39,Wunderground v.1.15,2013-07-17 19:59:00,
2013-07-17 16:01:00,72.3,70.2,30.09,SSE,150,4.0,8.0,93,0.63,,,0.40,Wunderground v.1.15,2013-07-17 20:01:00,
2013-07-17 16:02:00,72.2,70.1,30.09,ENE,65,6.0,9.0,93,0.49,,,0.41,Wunderground v.1.15,2013-07-17 20:02:00,
2013-07-17 16:04:00,72.0,69.9,30.08,East,98,4.0,15.0,93,0.64,,,0.43,Wunderground v.1.15,2013-07-17 20:04:00,
2013-07-17 16:06:00,71.9,70.1,30.08,SE,124,4.0,15.0,94,0.43,,,0.44,Wunderground v.1.15,2013-07-17 20:06:00,
2013-07-17 16:07:00,71.8,70.0,30.08,East,79,9.0,15.0,94,0.27,,,0.44,Wunderground v.1.15,2013-07-17 20:07:00,
2013-07-17 16:10:00,71.5,69.7,30.07,SE,128,7.0,10.0,94,0.20,,,0.45,Wunderground v.1.15,2013-07-17 20:10:00,
2013-07-17 16:11:00,71.4,69.6,30.07,ESE,118,7.0,10.0,94,0.17,,,0.45,Wunderground v.1.15,2013-07-17 20:11:00,
2013-07-17 16:12:00,71.3,69.5,30.07,ESE,118,7.0,10.0,94,0.13,,,0.45,Wunderground v.1.15,2013-07-17 20:12:00,
2013-07-17 16:15:00,71.0,69.2,30.07,SE,145,5.0,13.0,94,0.07,,,0.45,Wunderground v.1.15,2013-07-17 20:15:00,
2013-07-17 16:16:00,71.0,69.2,30.07,East,86,2.0,13.0,94,0.07,,,0.45,Wunderground v.1.15,2013-07-17 20:16:00,
2013-07-17 16:17:00,71.0,69.2,30.07,SE,131,5.0,13.0,94,0.06,,,0.45,Wunderground v.1.15,2013-07-17 20:17:00,
2013-07-17 16:21:00,70.9,69.4,30.06,East,91,7.0,9.0,95,0.04,,,0.45,Wunderground v.1.15,2013-07-17 20:21:00,
2013-07-17 16:22:00,70.9,69.4,30.07,ESE,111,7.0,13.0,95,0.04,,,0.45,Wunderground v.1.15,2013-07-17 20:22:00,
2013-07-17 16:26:00,71.0,69.5,30.06,East,79,5.0,13.0,95,0.04,,,0.46,Wunderground v.1.15,2013-07-17 20:26:00,
2013-07-17 16:27:00,71.0,69.5,30.06,ENE,77,5.0,13.0,95,0.04,,,0.46,Wunderground v.1.15,2013-07-17 20:27:00,
2013-07-17 16:28:00,71.1,69.6,30.06,East,80,6.0,13.0,95,0.04,,,0.46,Wunderground v.1.15,2013-07-17 20:28:00,
2013-07-17 16:32:00,71.2,69.7,30.06,SE,131,6.0,7.0,95,0.04,,,0.46,Wunderground v.1.15,2013-07-17 20:32:00,
2013-07-17 16:33:00,71.2,69.7,30.06,ENE,71,6.0,13.0,95,0.04,,,0.46,Wunderground v.1.15,2013-07-17 20:33:00,
2013-07-17 16:37:00,71.3,69.8,30.05,ENE,70,6.0,13.0,95,0.04,,,0.46,Wunderground v.1.15,2013-07-17 20:37:00,
2013-07-17 16:38:00,71.3,69.8,30.05,NE,47,5.0,13.0,95,0.04,,,0.46,Wunderground v.1.15,2013-07-17 20:38:00,
2013-07-17 16:42:00,71.4,69.9,30.06,East,90,2.0,11.0,95,0.00,,,0.46,Wunderground v.1.15,2013-07-17 20:42:00,
2013-07-17 16:43:00,71.4,69.9,30.06,ESE,111,5.0,11.0,95,0.00,,,0.46,Wunderground v.1.15,2013-07-17 20:43:00,
2013-07-17 16:47:00,71.4,69.9,30.06,East,84,3.0,11.0,95,0.00,,,0.46,Wunderground v.1.15,2013-07-17 20:47:00,
2013-07-17 16:48:00,71.5,70.0,30.06,East,85,3.0,11.0,95,0.00,,,0.46,Wunderground v.1.15,2013-07-17 20:48:00,
2013-07-17 16:52:00,71.5,70.0,30.06,East,86,2.0,5.0,95,0.00,,,0.46,Wunderground v.1.15,2013-07-17 20:52:00,
2013-07-17 16:53:00,71.5,70.0,30.06,SE,127,1.0,5.0,95,0.00,,,0.46,Wunderground v.1.15,2013-07-17 20:53:00,
2013-07-17 16:54:00,71.6,70.1,30.06,East,97,1.0,5.0,95,0.00,,,0.46,Wunderground v.1.15,2013-07-17 20:54:00,
2013-07-17 16:57:00,71.7,70.5,30.06,East,89,2.0,5.0,96,0.00,,,0.46,Wunderground v.1.15,2013-07-17 20:57:00,
2013-07-17 16:58:00,71.7,70.5,30.06,ENE,75,3.0,5.0,96,0.00,,,0.46,Wunderground v.1.15,2013-07-17 20:58:00,
2013-07-17 16:59:00,71.7,70.5,30.06,East,97,1.0,5.0,96,0.00,,,0.46,Wunderground v.1.15,2013-07-17 20:59:00,
2013-07-17 17:02:00,71.8,70.6,30.05,ESE,114,1.0,5.0,96,0.00,,,0.46,Wunderground v.1.15,2013-07-17 21:02:00,
2013-07-17 17:03:00,71.8,70.6,30.05,East,79,2.0,5.0,96,0.00,,,0.46,Wunderground v.1.15,2013-07-17 21:03:00,
2013-07-17 17:04:00,71.8,70.6,30.05,NE,51,3.0,5.0,96,0.00,,,0.46,Wunderground v.1.15,2013-07-17 21:04:00,
2013-07-17 17:07:00,71.8,70.6,30.05,ENE,67,4.0,5.0,96,0.00,,,0.46,Wunderground v.1.15,2013-07-17 21:07:00,
2013-07-17 17:08:00,71.8,70.6,30.05,NNE,13,2.0,6.0,96,0.00,,,0.46,Wunderground v.1.15,2013-07-17 21:08:00,
2013-07-17 17:09:00,71.8,70.3,30.05,ENE,77,3.0,6.0,95,0.00,,,0.46,Wunderground v.1.15,2013-07-17 21:09:00,
2013-07-17 17:10:00,71.8,70.3,30.05,ESE,106,1.0,3.0,95,0.00,,,0.46,Wunderground v.1.15,2013-07-17 21:10:00,
2013-07-17 17:12:00,71.8,70.3,30.05,NE,51,0.0,4.0,95,0.00,,,0.46,Wunderground v.1.15,2013-07-17 21:12:00,
2013-07-17 17:13:00,71.9,70.7,30.05,NE,51,1.0,4.0,96,0.00,,,0.46,Wunderground v.1.15,2013-07-17 21:13:00,
2013-07-17 17:14:00,71.9,70.7,30.05,NE,51,2.0,4.0,96,0.00,,,0.46,Wunderground v.1.15,2013-07-17 21:14:00,
2013-07-17 17:15:00,71.9,70.7,30.05,NNE,13,2.0,4.0,96,0.00,,,0.46,Wunderground v.1.15,2013-07-17 21:15:00,
2013-07-17 17:17:00,72.2,71.0,30.05,North,359,2.0,4.0,96,0.00,,,0.46,Wunderground v.1.15,2013-07-17 21:17:00,
2013-07-17 17:19:00,72.2,71.0,30.05,NW,323,1.0,4.0,96,0.00,,,0.46,Wunderground v.1.15,2013-07-17 21:19:00,
2013-07-17 17:20:00,72.2,71.0,30.05,North,5,3.0,4.0,96,0.00,,,0.46,Wunderground v.1.15,2013-07-17 21:20:00,
2013-07-17 17:23:00,72.3,71.1,30.05,North,7,5.0,5.0,96,0.00,,,0.46,Wunderground v.1.15,2013-07-17 21:23:00,
2013-07-17 17:24:00,72.2,71.0,30.05,North,349,2.0,5.0,96,0.00,,,0.46,Wunderground v.1.15,2013-07-17 21:24:00,
2013-07-17 17:25:00,72.2,71.0,30.05,North,356,3.0,5.0,96,0.00,,,0.46,Wunderground v.1.15,2013-07-17 21:25:00,
2013-07-17 17:28:00,72.2,71.0,30.05,NE,49,0.0,5.0,96,0.00,,,0.46,Wunderground v.1.15,2013-07-17 21:28:00,
2013-07-17 17:29:00,72.2,71.0,30.05,North,359,2.0,5.0,96,0.00,,,0.46,Wunderground v.1.15,2013-07-17 21:29:00,
2013-07-17 17:30:00,72.2,71.0,30.05,North,359,1.0,2.0,96,0.00,,,0.46,Wunderground v.1.15,2013-07-17 21:30:00,
2013-07-17 17:34:00,72.1,70.9,30.05,NNE,13,1.0,5.0,96,0.00,,,0.46,Wunderground v.1.15,2013-07-17 21:34:00,
2013-07-17 17:35:00,72.2,71.0,30.05,NE,43,2.0,5.0,96,0.00,,,0.46,Wunderground v.1.15,2013-07-17 21:35:00,
2013-07-17 17:36:00,72.2,71.0,30.05,NE,40,1.0,5.0,96,0.00,,,0.46,Wunderground v.1.15,2013-07-17 21:36:00,
2013-07-17 17:39:00,72.2,71.0,30.05,NNE,23,3.0,5.0,96,0.00,,,0.46,Wunderground v.1.15,2013-07-17 21:39:00,
2013-07-17 17:40:00,72.2,71.0,30.05,NNE,23,2.0,2.0,96,0.00,,,0.46,Wunderground v.1.15,2013-07-17 21:40:00,
2013-07-17 17:41:00,72.2,71.0,30.05,NNE,29,4.0,4.0,96,0.00,,,0.46,Wunderground v.1.15,2013-07-17 21:41:00,
2013-07-17 17:44:00,72.3,71.1,30.05,NE,46,4.0,4.0,96,0.00,,,0.46,Wunderground v.1.15,2013-07-17 21:44:00,
2013-07-17 17:45:00,72.2,71.0,30.05,NNE,25,5.0,5.0,96,0.00,,,0.47,Wunderground v.1.15,2013-07-17 21:45:00,
2013-07-17 17:46:00,72.2,71.0,30.05,NW,311,1.0,5.0,96,0.00,,,0.47,Wunderground v.1.15,2013-07-17 21:46:00,
2013-07-17 17:49:00,72.2,71.0,30.05,NE,36,3.0,7.0,96,0.00,,,0.47,Wunderground v.1.15,2013-07-17 21:49:00,
2013-07-17 17:50:00,72.2,71.0,30.06,NE,41,4.0,4.0,96,0.00,,,0.47,Wunderground v.1.15,2013-07-17 21:50:00,
2013-07-17 17:51:00,72.2,71.0,30.05,NNE,20,3.0,4.0,96,0.00,,,0.47,Wunderground v.1.15,2013-07-17 21:51:00,
2013-07-17 17:54:00,72.3,71.1,30.05,NE,41,2.0,8.0,96,0.00,,,0.47,Wunderground v.1.15,2013-07-17 21:54:00,
2013-07-17 17:55:00,72.2,71.0,30.05,NE,37,4.0,8.0,96,0.00,,,0.47,Wunderground v.1.15,2013-07-17 21:55:00,
2013-07-17 17:56:00,72.2,71.0,30.05,NNE,19,4.0,8.0,96,0.00,,,0.47,Wunderground v.1.15,2013-07-17 21:56:00,
2013-07-17 17:59:00,72.3,71.1,30.05,North,349,3.0,8.0,96,0.00,,,0.47,Wunderground v.1.15,2013-07-17 21:59:00,
2013-07-17 18:00:00,72.3,71.1,30.06,NE,41,3.0,3.0,96,0.00,,,0.47,Wunderground v.1.15,2013-07-17 22:00:00,
2013-07-17 18:01:00,72.3,71.1,30.06,NE,47,3.0,5.0,96,0.00,,,0.47,Wunderground v.1.15,2013-07-17 22:01:00,
2013-07-17 18:04:00,72.3,71.1,30.06,North,355,1.0,6.0,96,0.00,,,0.47,Wunderground v.1.15,2013-07-17 22:04:00,
2013-07-17 18:05:00,72.4,71.2,30.06,NE,39,1.0,6.0,96,0.00,,,0.47,Wunderground v.1.15,2013-07-17 22:05:00,
2013-07-17 18:06:00,72.4,71.2,30.06,NNE,13,2.0,6.0,96,0.00,,,0.47,Wunderground v.1.15,2013-07-17 22:06:00,
2013-07-17 18:09:00,72.4,71.2,30.05,North,359,4.0,7.0,96,0.00,,,0.47,Wunderground v.1.15,2013-07-17 22:09:00,
2013-07-17 18:11:00,72.5,71.3,30.05,NE,43,3.0,5.0,96,0.00,,,0.47,Wunderground v.1.15,2013-07-17 22:11:00,
2013-07-17 18:14:00,72.2,71.0,30.05,NE,36,2.0,6.0,96,0.00,,,0.47,Wunderground v.1.15,2013-07-17 22:14:00,
2013-07-17 18:16:00,72.2,71.0,30.05,NE,43,2.0,6.0,96,0.00,,,0.47,Wunderground v.1.15,2013-07-17 22:16:00,
2013-07-17 18:17:00,72.2,71.0,30.05,NW,325,2.0,6.0,96,0.00,,,0.47,Wunderground v.1.15,2013-07-17 22:17:00,
2013-07-17 18:19:00,72.3,71.1,30.05,NE,53,5.0,6.0,96,0.00,,,0.47,Wunderground v.1.15,2013-07-17 22:19:00,
2013-07-17 18:21:00,72.3,71.1,30.05,NE,44,3.0,6.0,96,0.00,,,0.47,Wunderground v.1.15,2013-07-17 22:21:00,
2013-07-17 18:22:00,72.3,71.1,30.05,ENE,61,2.0,6.0,96,0.00,,,0.47,Wunderground v.1.15,2013-07-17 22:22:00,
2013-07-17 18:24:00,72.3,71.1,30.04,NE,55,3.0,6.0,96,0.00,,,0.47,Wunderground v.1.15,2013-07-17 22:24:00,
2013-07-17 18:26:00,72.3,71.1,30.04,NE,36,4.0,6.0,96,0.00,,,0.47,Wunderground v.1.15,2013-07-17 22:26:00,
2013-07-17 18:27:00,72.3,71.1,30.04,NNE,33,2.0,6.0,96,0.00,,,0.47,Wunderground v.1.15,2013-07-17 22:27:00,
2013-07-17 18:29:00,72.4,71.2,30.04,NE,55,2.0,6.0,96,0.00,,,0.47,Wunderground v.1.15,2013-07-17 22:29:00,
2013-07-17 18:31:00,72.4,71.2,30.04,ENE,63,1.0,3.0,96,0.00,,,0.47,Wunderground v.1.15,2013-07-17 22:31:00,
2013-07-17 18:32:00,72.4,71.2,30.04,ENE,62,2.0,3.0,96,0.00,,,0.47,Wunderground v.1.15,2013-07-17 22:32:00,
2013-07-17 18:33:00,72.5,71.3,30.04,ENE,62,0.0,3.0,96,0.00,,,0.47,Wunderground v.1.15,2013-07-17 22:33:00,
2013-07-17 18:35:00,72.5,71.3,30.04,NE,49,2.0,4.0,96,0.00,,,0.47,Wunderground v.1.15,2013-07-17 22:35:00,
2013-07-17 18:36:00,72.5,71.3,30.04,ENE,58,1.0,4.0,96,0.00,,,0.47,Wunderground v.1.15,2013-07-17 22:36:00,
2013-07-17 18:37:00,72.5,71.3,30.04,ENE,58,1.0,4.0,96,0.00,,,0.47,Wunderground v.1.15,2013-07-17 22:37:00,
2013-07-17 18:38:00,72.5,71.3,30.04,NE,47,3.0,4.0,96,0.00,,,0.47,Wunderground v.1.15,2013-07-17 22:38:00,
2013-07-17 18:40:00,72.5,71.3,30.04,NNE,29,1.0,2.0,96,0.00,,,0.47,Wunderground v.1.15,2013-07-17 22:40:00,
2013-07-17 18:41:00,72.4,71.2,30.04,ENE,68,4.0,5.0,96,0.00,,,0.47,Wunderground v.1.15,2013-07-17 22:41:00,
2013-07-17 18:42:00,72.5,71.3,30.04,ENE,68,2.0,5.0,96,0.00,,,0.47,Wunderground v.1.15,2013-07-17 22:42:00,
2013-07-17 18:48:00,72.6,71.4,30.04,ENE,60,4.0,5.0,96,0.00,,,0.47,Wunderground v.1.15,2013-07-17 22:48:00,
2013-07-17 18:50:00,72.6,71.4,30.04,ENE,65,1.0,3.0,96,0.00,,,0.47,Wunderground v.1.15,2013-07-17 22:50:00,
2013-07-17 18:51:00,72.7,71.5,30.04,ENE,62,1.0,3.0,96,0.00,,,0.47,Wunderground v.1.15,2013-07-17 22:51:00,
2013-07-17 18:54:00,72.7,71.5,30.04,NE,41,3.0,3.0,96,0.00,,,0.47,Wunderground v.1.15,2013-07-17 22:54:00,
2013-07-17 18:56:00,72.7,71.5,30.04,ENE,64,1.0,3.0,96,0.00,,,0.47,Wunderground v.1.15,2013-07-17 22:56:00,
2013-07-17 18:57:00,72.8,71.6,30.05,North,11,1.0,3.0,96,0.00,,,0.47,Wunderground v.1.15,2013-07-17 22:57:00,
2013-07-17 18:59:00,72.9,71.7,30.05,NNE,25,3.0,3.0,96,0.00,,,0.47,Wunderground v.1.15,2013-07-17 22:59:00,
2013-07-17 19:00:00,72.9,71.7,30.05,ENE,72,1.0,2.0,96,0.00,,,0.47,Wunderground v.1.15,2013-07-17 23:00:00,
2013-07-17 19:02:00,72.9,71.7,30.05,North,8,3.0,3.0,96,0.00,,,0.47,Wunderground v.1.15,2013-07-17 23:02:00,
2013-07-17 19:05:00,73.0,71.8,30.05,NNE,26,1.0,3.0,96,0.00,,,0.47,Wunderground v.1.15,2013-07-17 23:05:00,
2013-07-17 19:07:00,73.0,71.8,30.05,NNE,19,3.0,3.0,96,0.00,,,0.47,Wunderground v.1.15,2013-07-17 23:07:00,
2013-07-17 19:08:00,73.1,71.9,30.05,NNE,29,2.0,3.0,96,0.00,,,0.47,Wunderground v.1.15,2013-07-17 23:08:00,
2013-07-17 19:09:00,73.1,71.9,30.05,NNE,33,1.0,3.0,96,0.00,,,0.47,Wunderground v.1.15,2013-07-17 23:09:00,
2013-07-17 19:11:00,73.1,71.9,30.05,NNE,20,1.0,3.0,96,0.00,,,0.47,Wunderground v.1.15,2013-07-17 23:11:00,
2013-07-17 19:12:00,73.1,71.9,30.06,North,5,1.0,3.0,96,0.00,,,0.47,Wunderground v.1.15,2013-07-17 23:12:00,
2013-07-17 19:14:00,73.1,71.9,30.06,NNE,27,2.0,3.0,96,0.00,,,0.47,Wunderground v.1.15,2013-07-17 23:14:00,
2013-07-17 19:16:00,73.2,72.0,30.06,NNE,13,4.0,4.0,96,0.00,,,0.47,Wunderground v.1.15,2013-07-17 23:16:00,
2013-07-17 19:18:00,73.1,71.9,30.06,NNE,29,4.0,5.0,96,0.00,,,0.47,Wunderground v.1.15,2013-07-17 23:18:00,
2013-07-17 19:19:00,73.1,71.9,30.06,ENE,62,2.0,5.0,96,0.00,,,0.47,Wunderground v.1.15,2013-07-17 23:19:00,
2013-07-17 19:21:00,73.1,71.9,30.06,ENE,60,2.0,4.0,96,0.00,,,0.47,Wunderground v.1.15,2013-07-17 23:21:00,
2013-07-17 19:23:00,73.1,71.9,30.06,ENE,58,4.0,5.0,96,0.00,,,0.47,Wunderground v.1.15,2013-07-17 23:23:00,
2013-07-17 19:24:00,73.1,71.9,30.06,NE,49,3.0,5.0,96,0.00,,,0.47,Wunderground v.1.15,2013-07-17 23:24:00,
2013-07-17 19:26:00,73.2,72.0,30.06,NNE,32,4.0,5.0,96,0.00,,,0.47,Wunderground v.1.15,2013-07-17 23:26:00,
2013-07-17 19:28:00,73.2,72.0,30.06,NE,49,4.0,5.0,96,0.00,,,0.47,Wunderground v.1.15,2013-07-17 23:28:00,
2013-07-17 19:29:00,73.2,72.0,30.06,NNE,31,2.0,5.0,96,0.00,,,0.47,Wunderground v.1.15,2013-07-17 23:29:00,
2013-07-17 19:30:00,73.2,72.0,30.06,NNE,27,1.0,2.0,96,0.00,,,0.47,Wunderground v.1.15,2013-07-17 23:30:00,
2013-07-17 19:31:00,73.2,72.0,30.06,ENE,77,2.0,2.0,96,0.00,,,0.47,Wunderground v.1.15,2013-07-17 23:31:00,
2013-07-17 19:34:00,73.2,72.0,30.06,ENE,60,1.0,2.0,96,0.00,,,0.47,Wunderground v.1.15,2013-07-17 23:34:00,
2013-07-17 19:35:00,73.1,71.9,30.06,NE,36,3.0,3.0,96,0.00,,,0.47,Wunderground v.1.15,2013-07-17 23:35:00,
2013-07-17 19:36:00,73.1,71.9,30.06,NE,47,2.0,4.0,96,0.00,,,0.47,Wunderground v.1.15,2013-07-17 23:36:00,
2013-07-17 19:39:00,73.1,71.9,30.06,NE,47,2.0,4.0,96,0.00,,,0.47,Wunderground v.1.15,2013-07-17 23:39:00,
2013-07-17 19:40:00,73.1,71.9,30.06,NE,52,1.0,2.0,96,0.00,,,0.47,Wunderground v.1.15,2013-07-17 23:40:00,
2013-07-17 19:41:00,73.1,71.9,30.06,ENE,67,2.0,3.0,96,0.00,,,0.47,Wunderground v.1.15,2013-07-17 23:41:00,
2013-07-17 19:44:00,73.1,71.9,30.06,ENE,75,2.0,5.0,96,0.00,,,0.47,Wunderground v.1.15,2013-07-17 23:44:00,
2013-07-17 19:45:00,73.1,71.9,30.06,ENE,60,2.0,5.0,96,0.00,,,0.47,Wunderground v.1.15,2013-07-17 23:45:00,
2013-07-17 19:46:00,73.1,71.9,30.06,ENE,75,4.0,5.0,96,0.00,,,0.47,Wunderground v.1.15,2013-07-17 23:46:00,
2013-07-17 19:49:00,73.1,71.9,30.06,ENE,63,2.0,5.0,96,0.00,,,0.47,Wunderground v.1.15,2013-07-17 23:49:00,
2013-07-17 19:50:00,73.1,71.9,30.06,ENE,60,1.0,3.0,96,0.00,,,0.47,Wunderground v.1.15,2013-07-17 23:50:00,
2013-07-17 19:51:00,73.1,71.9,30.06,ENE,60,0.0,3.0,96,0.00,,,0.47,Wunderground v.1.15,2013-07-17 23:51:00,
2013-07-17 19:54:00,73.1,71.9,30.06,ENE,58,0.0,5.0,96,0.00,,,0.47,Wunderground v.1.15,2013-07-17 23:54:00,
2013-07-17 19:55:00,73.2,72.0,30.06,ENE,58,1.0,5.0,96,0.00,,,0.47,Wunderground v.1.15,2013-07-17 23:55:00,
2013-07-17 19:56:00,73.2,72.0,30.06,NE,55,1.0,5.0,96,0.00,,,0.47,Wunderground v.1.15,2013-07-17 23:56:00,
2013-07-17 19:57:00,73.2,72.0,30.06,NNE,13,2.0,5.0,96,0.00,,,0.47,Wunderground v.1.15,2013-07-17 23:57:00,
2013-07-17 20:00:00,73.2,72.0,30.06,NNE,15,2.0,2.0,96,0.00,,,0.47,Wunderground v.1.15,2013-07-18 00:00:00,
2013-07-17 20:01:00,73.2,72.0,30.06,NNE,16,1.0,2.0,96,0.00,,,0.47,Wunderground v.1.15,2013-07-18 00:01:00,
2013-07-17 20:03:00,73.2,72.0,30.06,NNE,15,1.0,2.0,96,0.00,,,0.47,Wunderground v.1.15,2013-07-18 00:03:00,